Don't ask what we can do for you, but what you can do for us!

PRE DATA

Datetime Release
2019-04-09 00:01:53 Foreigner-Live_At_The_Rainbow_78-2019-404
2019-04-09 00:03:50 Havna.S01E04.NORWEGiAN.720p.WEB.x264-NORPiLT
2019-04-09 00:05:15 Bondeparet.S02E05.SWEDiSH.720p.WEB.X264-EXECUTION
2019-04-09 00:05:24 Unga.Foraldrar.S08E07.SWEDiSH.720p.WEB.X264-EXECUTION
2019-04-09 00:05:38 Bondeparet.S02E05.SWEDiSH.1080p.WEB.X264-EXECUTION
2019-04-09 00:05:51 Unga.Foraldrar.S08E07.SWEDiSH.1080p.WEB.X264-EXECUTION
2019-04-09 00:06:34 Havna.S01E05.NORWEGiAN.720p.WEB.x264-NORPiLT
2019-04-09 00:09:06 Havna.S01E06.NORWEGiAN.720p.WEB.x264-NORPiLT
2019-04-09 00:09:29 The.Price.Is.Right.S47E133.WEB.x264-W4F
2019-04-09 00:09:52 Fleabag.S02E06.720p.HDTV.X264-CREED
2019-04-09 00:10:26 The.Price.Is.Right.S47E133.720p.WEB.x264-W4F
2019-04-09 00:11:04 The.Price.Is.Right.S47E133.1080p.WEB.x264-W4F
2019-04-09 00:13:48 Lets.Make.A.Deal.2009.S10E135.WEB.x264-W4F
2019-04-09 00:14:36 Lets.Make.A.Deal.2009.S10E135.720p.WEB.x264-W4F
2019-04-09 00:15:16 Lets.Make.A.Deal.2009.S10E135.1080p.WEB.x264-W4F
2019-04-09 00:16:19 S.W.A.T.2017.S02E17.GERMAN.720p.HDTV.x264-ACED
2019-04-09 00:16:49 MarZ.Tactical.Base.Defense.Update.v20190408-CODEX
2019-04-09 00:17:00 S.W.A.T.2017.S02E17.GERMAN.HDTV.x264-ACED
2019-04-09 00:17:07 GOLD-Why_Arent_You_Laughing-CD-2019-AMOK
2019-04-09 00:17:35 GOLD-Why_Arent_You_Laughing-CD-FLAC-2019-AMOK
2019-04-09 00:18:42 Pineview.Drive.Homeless.Update.v1.0.2-PLAZA
2019-04-09 00:19:34 Rabi.Ribi.Before.Next.Adventure.Update.v1.99s-PLAZA
2019-04-09 00:22:30 Canterbury.Cup.NSW.2019.Round.4.Bears.vs.Bulldogs.WEB.H264-LASTPLACE
2019-04-09 00:30:08 Canterbury.Cup.NSW.2019.Round.4.Bears.vs.Bulldogs.720p.WEB.H264-LASTPLACE
2019-04-09 00:41:22 AFL.Game.Day.2019.04.07.WEB.H264-LASTPLACE
2019-04-09 00:45:59 100.Percent.Footy.2019.04.08.WEB.H264-LASTPLACE
2019-04-09 00:47:48 60.Minutes.S51E25.1080p.WEB.x264-LiGATE
2019-04-09 00:48:38 60.Minutes.S51E25.720p.WEB.x264-LiGATE
2019-04-09 00:50:26 100.Percent.Footy.2019.04.08.720p.WEB.H264-LASTPLACE
2019-04-09 00:50:40 60.Minutes.S51E25.WEB.x264-LiGATE
2019-04-09 00:51:22 The.Young.and.the.Restless.S46E150.1080p.WEB.x264-LiGATE
2019-04-09 00:52:18 The.Young.and.the.Restless.S46E150.720p.WEB.x264-LiGATE
2019-04-09 00:53:36 The.Young.and.the.Restless.S46E150.WEB.x264-LiGATE
2019-04-09 00:55:59 Footy.Classified.2019.04.08.WEB.H264-LASTPLACE
2019-04-09 00:59:34 Footy.Classified.2019.04.08.720p.WEB.H264-LASTPLACE
2019-04-09 01:10:27 The.Oval.Office.2019.04.08.WEB.H264-LASTPLACE
2019-04-09 01:15:17 The.Oval.Office.2019.04.08.720p.WEB.H264-LASTPLACE
2019-04-09 01:16:41 Caught_In_The_Act_-_Greatest_Hits_And_Remixes-WEB-2018-iDC
2019-04-09 01:17:13 Paul_Van_Dyk_Feat_Austin_Leeds_-_Verano-WEB-2014-iDC
2019-04-09 01:23:53 BLOCKADE.War.Stories-TiNYiSO
2019-04-09 01:29:12 Stargate.SG-1.S06E19.SPANiSH.HR.WS.PDTV.x264-4FiRE
2019-04-09 01:29:33 Stargate.SG-1.S06E20.SPANiSH.HR.WS.PDTV.x264-4FiRE
2019-04-09 01:34:28 Life.in.Pieces.S03E11.FRENCH.HDTV.x264-AMB3R
2019-04-09 01:43:11 This.Is.Not.Happening.2015.S04E20.HDTV.x264-YesTV
2019-04-09 01:43:13 This.Is.Not.Happening.2015.S04E20.720p.HDTV.x264-YesTV
2019-04-09 01:43:44 Ridiculousness.S13E31.HDTV.x264-YesTV
2019-04-09 01:43:45 Ridiculousness.S13E31.720p.HDTV.x264-YesTV
2019-04-09 01:48:00 WTA.Samsung.Open.2019.Round.1.Mona.Barthel.Vs.Sorana.Cirstea.720p.WEB.h264-PYRAMiD
2019-04-09 01:50:57 Baba_Is_You_Update_v1.0.3_NSW-VENOM
2019-04-09 01:53:05 WTA.Samsung.Open.2019.Round.1.Svetlana.Kuznetsova.Vs.Ekaterina.Alexandrova.720p.WEB.h264-PYRAMiD
2019-04-09 01:56:59 PornMegaLoad.19.04.08.Antica.Awesome.Antica.XXX.1080p.MP4-KTR
2019-04-09 01:58:07 WTA.Samsung.Open.2019.Round.1.Tereza.Smitkova.Vs.Alison.Van.Uytvanck.720p.WEB.h264-PYRAMiD
2019-04-09 01:58:14 PornMegaLoad.19.04.08.Felicia.Clover.Fetish.Doll.Training.XXX.1080p.MP4-KTR
2019-04-09 01:59:31 PornMegaLoad.19.04.08.Leka.Freckles.Bush.And.Butt.Plugs.XXX.1080p.MP4-KTR
2019-04-09 02:00:37 PrivateSociety.19.04.08.Such.A.Filthy.Little.Mouth.XXX.720p.MP4-KTR
2019-04-09 02:01:17 Tradgardstider.S06E05.SWEDiSH.720p.WEB.H264-EXECUTION
2019-04-09 02:02:28 MrLuckyPOV.19.01.18.Sheena.Ryder.Outstanding.Ass.Job.XXX.2160p.MP4-KTR
2019-04-09 02:02:51 NCIS.New.Orleans.S05E19.HDTV.x264-KILLERS
2019-04-09 02:02:52 NCIS.New.Orleans.S05E19.720p.HDTV.x264-KILLERS
2019-04-09 02:03:09 The.Good.Place.S02D01.COMPLETE.BLURAY-PFa
2019-04-09 02:03:57 MrLuckyPOV.19.01.25.Ashley.Lane.Backyard.Blowjob.XXX.2160p.MP4-KTR
2019-04-09 02:05:17 MrLuckyPOV.19.01.31.Sadie.Holmes.Married.Slut.XXX.2160p.MP4-KTR
2019-04-09 02:06:39 Australian.Swimming.Championships.2019.Day.1.WEB.H264-LASTPLACE
2019-04-09 02:06:51 Biggest.Loser.S09E02.SWEDiSH.720p.WEB.X264-EXECUTION
2019-04-09 02:07:39 Biggest.Loser.S09E02.SWEDiSH.1080p.WEB.X264-EXECUTION
2019-04-09 02:10:11 Shadowhunters.The.Mortal.Instruments.S03E17.WEB.x264-TBS
2019-04-09 02:10:24 Shadowhunters.The.Mortal.Instruments.S03E17.720p.WEB.x264-TBS
2019-04-09 02:16:48 Antiques.Roadshow.US.S23E10.1080p.WEB.h264-TBS
2019-04-09 02:17:30 Antiques.Roadshow.US.S23E10.720p.WEB.h264-TBS
2019-04-09 02:17:52 Antiques.Roadshow.US.S23E10.WEB.h264-TBS
2019-04-09 02:23:28 DevilsFilm.Boober.3.XXX.720p.MP4-KTR
2019-04-09 02:23:38 Control-Democracy_Is_Dead-DIGIPAK-CD-FLAC-2019-FiXIE
2019-04-09 02:24:38 Australian.Swimming.Championships.2019.Day.2.WEB.H264-LASTPLACE
2019-04-09 02:26:56 DevilsFilm.Boober.3.XXX.1080p.MP4-KTR
2019-04-09 02:29:14 Csejthe-Lhorreur_De_Cachtice-FR-CD-FLAC-2019-UTP
2019-04-09 02:29:58 Rad_Owl-Madison_Beast-WEB-2018-FATHEAD
2019-04-09 02:30:28 The.Cinema.Rosa.Hotfix-PLAZA
2019-04-09 02:30:53 Incandescence-Ascension-2019-UTP
2019-04-09 02:32:19 The.Fix.2019.S01E04.HDTV.x264-KILLERS
2019-04-09 02:32:27 Incandescence-Ascension-CD-FLAC-2019-UTP
2019-04-09 02:35:46 Sorcier_Des_Glaces-Snowland-Remastered-2019-UTP
2019-04-09 02:37:03 Sorcier_Des_Glaces-Snowland-Remastered-CD-FLAC-2019-UTP
2019-04-09 02:40:27 The.Fix.2019.S01E04.720p.HDTV.x264-KILLERS
2019-04-09 02:41:03 DJ_Space_C_-_Could_It_Be_Magic-WEB-1996-iDC
2019-04-09 02:42:33 Bridezillas.S12E02.CelebZilla.and.iDunnoZilla.720p.HDTV.x264-CRiMSON
2019-04-09 02:45:02 Street.Legal.S09E06.WEBRip.x264-TBS
2019-04-09 02:48:16 Ximena_Sarinana-Donde_Bailaran_Las_Ninas-(190295470227)-ES-PROPER-CD-2019-FREGON
2019-04-09 02:48:26 Street.Legal.S09E06.720p.WEBRip.x264-TBS
2019-04-09 02:49:26 Ximena_Sarinana-Donde_Bailaran_Las_Ninas-(190295470227)-ES-CD-FLAC-2019-FREGON
2019-04-09 02:49:55 Days.of.our.Lives.S54E138.WEB.x264-W4F
2019-04-09 02:51:26 DevilsFilm.Boober.3.XXX.2160p.MP4-KTR
2019-04-09 02:51:45 Days.of.our.Lives.S54E138.720p.WEB.x264-W4F
2019-04-09 02:51:56 Days.of.our.Lives.S54E138.1080p.WEB.x264-W4F
2019-04-09 02:53:21 Brown_Ice-Imitation-(CAT291599)-WEB-2019-NDE
2019-04-09 02:55:30 DJ_Sevro-Nord-(7031160626352)-WEB-2019-NDE
2019-04-09 02:59:01 Fully_Electric_Fort-Fully_Automated-WEB-2019-NDE
2019-04-09 03:00:12 DCs.Legends.of.Tomorrow.S04E10.720p.HDTV.x264-AVS
2019-04-09 03:00:50 Jack_Liberto-Night_Tales-(BPR19073)-WEB-2019-NDE
2019-04-09 03:02:50 Sommerhytta.S03E18.NORWEGiAN.720p.WEB.H264-HENRETTELSE
2019-04-09 03:02:59 Albertino_with_His_Crew-Albertino_Everyday-SAT-08-04-2019-LFA
2019-04-09 03:03:07 John_Rivera-One_More_Step-(LOR19024)-WEB-2019-NDE
2019-04-09 03:03:21 Tid.For.Hjem.S18E12.NORWEGiAN.720p.WEB.H264-HENRETTELSE
2019-04-09 03:05:22 King_Of_Bass-Boomerang_Ll-(5059033419988)-WEB-2019-NDE
2019-04-09 03:06:30 Bang.Surprise.19.04.09.Lena.Anderson.XXX.1080p.MP4-KTR
2019-04-09 03:08:07 Miguel_Serrano-Different_Life-(BPR19074)-WEB-2019-NDE
2019-04-09 03:08:24 PornFidelity.E789.Sloan.Harper.Old.Friends.XXX.1080p.MP4-KTR
2019-04-09 03:09:59 Remo-Persona-(4061707157110)-WEB-2019-NDE
2019-04-09 03:11:25 SNTNT-Delusional_Electroshocks-(42474)-WEB-2019-NDE
2019-04-09 03:11:45 PornFidelity.E789.Sloan.Harper.Old.Friends.XXX.2160p.MP4-KTR
2019-04-09 03:12:03 Season_Match_Bundle_Part_1_and_2_NSW-LUBE
2019-04-09 03:12:35 TMZ.on.TV.2019.04.05.720p.WEB.x264-TBS
2019-04-09 03:12:42 TMZ.on.TV.2019.04.05.WEB.x264-TBS
2019-04-09 03:13:14 Sonic_Tribe-Altruism-(SMS0003)-WEB-2019-NDE
2019-04-09 03:14:53 45.Revoluciones.S01E04.SPANiSH.1080p.HDTV.x264-4FiRE
2019-04-09 03:15:13 45.Revoluciones.S01E04.SPANiSH.720p.HDTV.x264-4FiRE
2019-04-09 03:15:33 45.Revoluciones.S01E04.SPANiSH.HDTV.x264-4FiRE
2019-04-09 03:22:45 HussiePass.19.04.07.Luna.Star.XXX.1080p.MP4-KTR
2019-04-09 03:24:44 The_Warriors-These_Streets_Are_Ours-DIGIPAK-CD-FLAC-2019-FiXIE
2019-04-09 03:26:10 Street.Legal.S09E06.1080p.WEBRip.x264-TBS
2019-04-09 03:26:17 HussiePass.19.04.07.Luna.Star.XXX.2160p.MP4-KTR
2019-04-09 03:28:32 Nelke_and_the_Legendary_Alchemists_Ateliers_of_the_New_World_Additional_Resident_Gust_Chan_DLC_NSW-SUXXORS
2019-04-09 03:31:03 Bar.Rescue.S06E31.WEB.x264-TBS
2019-04-09 03:31:12 Bar.Rescue.S06E31.720p.WEB.x264-TBS
2019-04-09 03:31:30 Bar.Rescue.S06E31.1080p.WEB.x264-TBS
2019-04-09 03:43:16 HookupHotshot.E186.Trinity.St.Clair.XXX.1080p.MP4-KTR
2019-04-09 03:45:50 HookupHotshot.E186.Trinity.St.Clair.XXX.2160p.MP4-KTR
2019-04-09 03:53:42 Morgana_-_Take_A_Look-WEB-1996-iDC
2019-04-09 03:57:14 Dead_or_Alive_Xtreme_3_Scarlet_Update_v1.0.2_NSW-SUXXORS
2019-04-09 04:06:40 Street.Outlaws.S13E05.WEB.x264-TBS
2019-04-09 04:06:54 Street.Outlaws.S13E05.720p.WEB.x264-TBS
2019-04-09 04:07:11 Street.Outlaws.S13E05.1080p.WEB.x264-TBS
2019-04-09 04:07:20 Diesel.Brothers.S05E01.WEB.x264-TBS
2019-04-09 04:07:47 American.Dad.S14E22.WEBRip.x264-TBS
2019-04-09 04:07:51 Diesel.Brothers.S05E01.720p.WEB.x264-TBS
2019-04-09 04:08:09 Diesel.Brothers.S05E01.1080p.WEB.x264-TBS
2019-04-09 04:09:07 American.Dad.S14E22.720p.WEBRip.x264-TBS
2019-04-09 04:10:51 American.Dad.S14E22.1080p.WEBRip.x264-TBS
2019-04-09 04:18:56 Deadwind.S01E05.FRENCH.HDTV.x264-AMB3R
2019-04-09 04:47:14 Love.and.Hip.Hop.Atlanta.S08E04.Case.of.the.Ex.720p.HDTV.x264-CRiMSON
2019-04-09 04:47:55 Love.and.Hip.Hop.Atlanta.S08E04.Case.of.the.Ex.HDTV.x264-CRiMSON
2019-04-09 04:48:51 Spring.Baking.Championship.S05E04.Southern.Spring.Bakeover.720p.WEBRip.x264-CAFFEiNE
2019-04-09 04:52:10 Spring.Baking.Championship.S05E04.Southern.Spring.Bakeover.WEBRip.x264-CAFFEiNE
2019-04-09 04:58:58 Into.the.Badlands.S03E12.720p.WEB.h264-TBS
2019-04-09 05:01:00 Into.the.Badlands.S03E12.1080p.WEB.h264-TBS
2019-04-09 05:01:54 Into.the.Badlands.S03E12.WEB.h264-TBS
2019-04-09 05:02:18 The.Enemy.Within.S01E07.HDTV.x264-BATV
2019-04-09 05:03:30 The.Enemy.Within.S01E07.720p.HDTV.x264-BATV
2019-04-09 05:09:46 The.54th.Academy.of.Country.Music.Awards.2019.WEB.x264-TBS
2019-04-09 05:10:20 Expedition.Unknown-Egypt.Live.2019.1080p.WEB.x264-CAFFEiNE
2019-04-09 05:10:24 The.54th.Academy.of.Country.Music.Awards.2019.1080p.WEB.x264-TBS
2019-04-09 05:10:25 The.54th.Academy.of.Country.Music.Awards.2019.720p.WEB.x264-TBS
2019-04-09 05:12:53 Expedition.Unknown-Egypt.Live.2019.720p.WEB.x264-CAFFEiNE
2019-04-09 05:15:33 Expedition.Unknown-Egypt.Live.2019.WEB.x264-CAFFEiNE
2019-04-09 05:21:57 Alaskan.Bush.People.S09E02.The.Buffalo.Trail.720p.HDTV.x264-W4F
2019-04-09 05:22:01 The.Daily.Show.2019.04.08.David.Oyelowo.EXTENDED.720p.WEB.x264-TBS
2019-04-09 05:22:02 Alaskan.Bush.People.S09E02.The.Buffalo.Trail.HDTV.x264-W4F
2019-04-09 05:22:20 The.Daily.Show.2019.04.08.David.Oyelowo.EXTENDED.1080p.WEB.x264-TBS
2019-04-09 05:22:21 Alaskan.Bush.People.S09E05.Winter.Is.Here.720p.HDTV.x264-W4F
2019-04-09 05:22:27 The.Daily.Show.2019.04.08.David.Oyelowo.EXTENDED.WEB.x264-TBS
2019-04-09 05:22:28 Alaskan.Bush.People.S09E05.Winter.Is.Here.HDTV.x264-W4F
2019-04-09 05:22:52 Americas.Test.Kitchen.S19E10.Cooking.at.Home.with.Bridget.and.Julia.720p.HDTV.x264-W4F
2019-04-09 05:22:58 Americas.Test.Kitchen.S19E10.Cooking.at.Home.with.Bridget.and.Julia.HDTV.x264-W4F
2019-04-09 05:28:01 Paranormal.911.S01E05.Fearful.Fed.720p.WEBRip.x264-CAFFEiNE
2019-04-09 05:31:18 Paranormal.911.S01E05.Fearful.Fed.WEBRip.x264-CAFFEiNE
2019-04-09 05:34:24 Paranormal.911.S01E06.The.Chapel.720p.WEBRip.x264-CAFFEiNE
2019-04-09 05:36:57 Paranormal.911.S01E06.The.Chapel.WEBRip.x264-CAFFEiNE
2019-04-09 05:39:58 By_RAVEN_and_Strong_Viking_-_Be_Strong_(Strong_Viking_Anthem_2019)-SINGLE-WEB-2019-ZzZz
2019-04-09 05:40:01 WTA.Claro.Open.2019.Round.1.Anna.Karolina.Schmiedlova.Vs.Ysaline.Bonaventure.720p.WEB.h264-PYRAMiD
2019-04-09 05:40:27 B3nte_feat_Marcus_Jrvinen_-_Lost_On_You-SINGLE-WEB-2019-ZzZz
2019-04-09 05:40:54 Le_Shuuk_-_Gold_Baby-SINGLE-WEB-2019-ZzZz
2019-04-09 05:41:15 Better.Things.S03E06.SUBFRENCH.HDTV.x264-AMB3R
2019-04-09 05:41:21 Pepe_Palme_-_Pepe_Palme_Hat_Ne_Strandfigur-SINGLE-WEB-DE-2019-ZzZz
2019-04-09 05:41:30 The.Big.Bang.Theory.S12E18..SUBFRENCH.720p.HDTV.x264-AMB3R
2019-04-09 05:41:38 The.Big.Bang.Theory.S12E18..SUBFRENCH.HDTV.x264-AMB3R
2019-04-09 05:41:47 Snowstylez_-_Last_Breath-SINGLE-WEB-2019-ZzZz
2019-04-09 05:45:04 WTA.Claro.Open.2019.Round.1.Beatriz.Haddad.Maia.Vs.Laura.Siegemund.720p.WEB.h264-PYRAMiD
2019-04-09 05:46:20 HouseOfTaboo.19.04.09.Blanche.Bradburry.Mistress.Of.Massage.XXX.1080p.MP4-KTR
2019-04-09 05:50:07 WTA.Claro.Open.2019.Round.1.Conny.Perrin.Vs.Maria.Camila.Osorio.Serrano.720p.WEB.h264-PYRAMiD
2019-04-09 05:50:23 Young.Sheldon.S02E18.SUBFRENCH.720p.HDTV.x264-AMB3R
2019-04-09 05:50:32 Young.Sheldon.S02E18.SUBFRENCH.HDTV.x264-AMB3R
2019-04-09 05:51:37 Teen.Mom.2.S09E13.Home.is.Home.HDTV.x264-CRiMSON
2019-04-09 05:52:05 Vanderpump.Rules.S07E18.End.of.an.Era.HDTV.x264-CRiMSON
2019-04-09 05:52:27 Teen.Mom.2.S09E13.Home.is.Home.720p.HDTV.x264-CRiMSON
2019-04-09 05:53:23 AssTraffic.19.04.09.Liza.Billberry.XXX.1080p.MP4-KTR
2019-04-09 05:55:09 WTA.Claro.Open.2019.Round.1.Elitsa.Kostova.Vs.Varvara.Lepchenko.720p.WEB.h264-PYRAMiD
2019-04-09 05:57:39 Hostile.Planet.S01E02.Oceans.720p.WEBRip.x264-CAFFEiNE
2019-04-09 05:59:41 Hostile.Planet.S01E02.Oceans.WEBRip.x264-CAFFEiNE
2019-04-09 06:00:14 WTA.Claro.Open.2019.Round.1.Jasmine.Paolini.Vs.Francesca.Di.Lorenzo.720p.WEB.h264-PYRAMiD
2019-04-09 06:02:30 MilfsLikeItBig.19.04.09.Jessica.Jade.You.Splashed.My.Snatch.XXX.1080p.MP4-KTR
2019-04-09 06:03:12 Vanderpump.Rules.S07E18.End.of.an.Era.720p.HDTV.x264-CRiMSON
2019-04-09 06:03:29 MommyGotBoobs.19.04.09.Dee.Williams.Stepson.Rubdown.XXX.1080p.MP4-KTR
2019-04-09 06:05:16 WTA.Samsung.Open.2019.Round.1.Viktorija.Golubic.Vs.Arantxa.Rus.720p.WEB.h264-PYRAMiD
2019-04-09 06:06:53 MofosBSides.19.04.09.Rachel.Adjani.Giving.Her.A.Fix.XXX.1080p.MP4-KTR
2019-04-09 06:14:45 All.Girls.Garage.S08E01.Commando.Brakes.1080p.WEB.x264-CAFFEiNE
2019-04-09 06:17:23 All.Girls.Garage.S08E01.Commando.Brakes.720p.WEB.x264-CAFFEiNE
2019-04-09 06:19:05 All.Girls.Garage.S08E01.Commando.Brakes.WEB.x264-CAFFEiNE
2019-04-09 06:21:50 FleshBurner-DeathDealer-WEB-2019-UTP
2019-04-09 06:22:40 Ngaio_Bealum-Weedier_And_Sexier-WEB-2019-TosK
2019-04-09 06:25:56 21FootArt.19.04.09.Helena.Moeller.Pamper.My.Feet.XXX.1080p.MP4-KTR
2019-04-09 06:28:35 Pluralsight.com.Routing.Serilog.Log.Entries.with.Filters.and.Formatters-ELOHiM
2019-04-09 06:31:22 BurningAngel.19.04.09.Jane.Wilde.XXX.1080p.MP4-KTR
2019-04-09 06:32:35 HardX.19.04.09.Jenna.Foxx.Her.Very.First.Anal.XXX.1080p.MP4-KTR
2019-04-09 06:32:46 Unbreakable-Lived.to.Tell.S01E01.He.Comes.Back.720p.WEBRip.x264-CAFFEiNE
2019-04-09 06:33:21 Black_Mafia_DJ_-_Bailando_Bajo_La_Luna___Clima_Tropical___Playa_Del_Caribe-(OTB_1837)-WEB-SP-2019-ZzZz
2019-04-09 06:34:01 PureTaboo.19.04.09.Chanel.Preston.And.Whitney.Wright.Keeping.Your.Family.Close.XXX.1080p.MP4-KTR
2019-04-09 06:36:25 JV_-_Never_Enough-(JV_0005)-SINGLE-WEB-2019-ZzZz
2019-04-09 06:37:08 Noisia-Noisia_Radio_S05E14-SAT-08-04-2019-1KING
2019-04-09 06:38:13 Unbreakable-Lived.to.Tell.S01E01.He.Comes.Back.WEBRip.x264-CAFFEiNE
2019-04-09 06:38:45 VA-Zouk_Session_2019-WEB-FR-2019-OND
2019-04-09 06:42:15 ImmoralLive.19.04.09.Aislin.XXX.1080p.MP4-KTR
2019-04-09 06:43:22 SweetSinner.19.04.09.Aidra.Fox.The.Sex.Therapist.XXX.1080p.MP4-KTR
2019-04-09 06:44:25 Throated.19.04.09.JoJo.Kiss.The.Young.Blonde.And.The.Cock.XXX.1080p.MP4-KTR
2019-04-09 06:47:34 Tempo_Bay_-_Shouldnt_Be_Afraid-(MSQ_003)-WEB-2019-ZzZz
2019-04-09 06:47:55 21FootArt.19.04.09.Helena.Moeller.Pamper.My.Feet.XXX.2160p.MP4-KTR
2019-04-09 06:48:05 Minutti_and_Manolo-Wake_Up_Murarhi-(7ARMTECH002)-SINGLE-WEB-2019-KLIN
2019-04-09 06:49:15 Summer.House.S03E06.Swimming.Uphill.HDTV.x264-CRiMSON
2019-04-09 06:50:05 BurningAngel.19.04.09.Jane.Wilde.XXX.2160p.MP4-KTR
2019-04-09 06:51:13 Blake_Baxter-Tenth_Planet-(KMS315)-WEB-2019-KLIN
2019-04-09 06:52:07 HardX.19.04.09.Jenna.Foxx.Her.Very.First.Anal.XXX.2160p.MP4-KTR
2019-04-09 06:53:55 Melody_Cruz_-_Im_Falling_For_You-(406170_7157332)-WEB-2019-ZzZz
2019-04-09 06:54:27 ImmoralLive.19.04.09.Aislin.XXX.2160p.MP4-KTR
2019-04-09 06:57:02 PureTaboo.19.04.09.Chanel.Preston.And.Whitney.Wright.Keeping.Your.Family.Close.XXX.2160p.MP4-KTR
2019-04-09 06:57:04 Sakin_Bozkurt-Fallout-(10149837)-WEB-2019-KLIN
2019-04-09 06:57:20 Close.Proximity.S01E01.HDR.2160p.UHDTV.H265-CBFM
2019-04-09 06:59:13 SweetSinner.19.04.09.Aidra.Fox.The.Sex.Therapist.XXX.2160p.MP4-KTR
2019-04-09 06:59:23 Summer.House.S03E06.Swimming.Uphill.720p.HDTV.x264-CRiMSON
2019-04-09 07:01:04 Throated.19.04.09.JoJo.Kiss.The.Young.Blonde.And.The.Cock.XXX.2160p.MP4-KTR
2019-04-09 07:04:46 Semester.S02E07.NORWEGiAN.720p.WEB.X264-HENRETTELSE
2019-04-09 07:05:14 Semester.S02E07.NORWEGiAN.1080p.WEB.X264-HENRETTELSE
2019-04-09 07:05:57 VA-Asian_House_Music-(OJR19038OJRC)-WEB-2019-NDE
2019-04-09 07:05:58 DCs.Legends.of.Tomorrow.S04E10.WEB.h264-TBS
2019-04-09 07:05:59 Aleksander_Lopez-Voltage-(CUP1911850)-WEB-2019-KLIN
2019-04-09 07:06:07 Pluralsight.com.Building.Features.from.Numeric.Data-ELOHiM
2019-04-09 07:06:24 PlayboyPlus.19.04.09.Katya.Clover.Bold.Waters.XXX.1080p.MP4-KTR
2019-04-09 07:06:29 DCs.Legends.of.Tomorrow.S04E10.1080p.WEB.h264-TBS
2019-04-09 07:06:50 DCs.Legends.of.Tomorrow.S04E10.iNTERNAL.720p.WEB.h264-BAMBOOZLE
2019-04-09 07:07:28 X-Art.19.04.08.Lillianne.Content.Creator.Masturbation.Lingerie.Show.XXX.1080p.MP4-KTR
2019-04-09 07:07:41 Bagges.Hemlosa.Hundar.S03E01.SWEDiSH.720p.WEB.X264-EXECUTION
2019-04-09 07:07:55 Jimmy.Fallon.2019.04.08.Hugh.Jackman.720p.HDTV.x264-SORNY
2019-04-09 07:08:01 Bagges.Hemlosa.Hundar.S03E01.SWEDiSH.1080p.WEB.X264-EXECUTION
2019-04-09 07:08:33 WetAndPissy.19.04.09.Barbie.Sins.Pornstar.Pissing.XXX.1080p.MP4-KTR
2019-04-09 07:09:57 WeLikeToSuck.19.04.09.Clea.Sweet.Sucking.XXX.1080p.MP4-KTR
2019-04-09 07:10:53 Food.Unwrapped.S16E04.1080p.HDTV.h264-PLUTONiUM
2019-04-09 07:11:04 Biggest.Loser.Revanschen.S09E01.SWEDiSH.720p.WEB.X264-EXECUTION
2019-04-09 07:11:07 Biggest.Loser.Revanschen.S09E01.SWEDiSH.1080p.WEB.X264-EXECUTION
2019-04-09 07:11:26 Natalino_Nunes-Ozone-(NMD050)-WEB-2019-KLIN
2019-04-09 07:11:54 Food.Unwrapped.S16E04.720p.HDTV.x264-PLUTONiUM
2019-04-09 07:11:59 X-Art.19.04.08.Lillianne.Content.Creator.Masturbation.Lingerie.Show.XXX.2160p.MP4-KTR
2019-04-09 07:12:18 Il.Corriere.Della.Sera.04.09.2019.iTALiAN.RETAiL.eBook-DiVER
2019-04-09 07:12:55 Food.Unwrapped.S16E04.HDTV.x264-PLUTONiUM
2019-04-09 07:13:52 WetAndPissy.19.04.09.Barbie.Sins.Pornstar.Pissing.XXX.2160p.MP4-KTR
2019-04-09 07:14:43 PluralSight.Managing.IT.Communication-BOOKWARE-KNiSO
2019-04-09 07:14:55 Arni-Fractals-(DATA597)-SINGLE-WEB-2019-KLIN
2019-04-09 07:16:33 WeLikeToSuck.19.04.09.Clea.Sweet.Sucking.XXX.2160p.MP4-KTR
2019-04-09 07:19:11 Ex.On.The.Beach.Danmark.S02E12.DANiSH.720p.WEB.x264-DANES
2019-04-09 07:20:23 One_Eighth_-_Youre_The_One-(505903_3419308)-SINGLE-WEB-2019-ZzZz
2019-04-09 07:20:44 Fiskedestination.S05E01.SWEDiSH.720p.WEB.X264-EXECUTION
2019-04-09 07:20:55 Leomind_-_Faded-(505903_3419407)-SINGLE-WEB-2019-ZzZz
2019-04-09 07:21:42 Fiskedestination.S05E02.SWEDiSH.720p.WEB.X264-EXECUTION
2019-04-09 07:22:42 Fiskedestination.S05E03.SWEDiSH.720p.WEB.X264-EXECUTION
2019-04-09 07:23:15 Fast.And.Famous.2017.HDR.2160p.UHDTV.H265-CBFM
2019-04-09 07:23:42 Fiskedestination.S05E04.SWEDiSH.720p.WEB.X264-EXECUTION
2019-04-09 07:24:42 Fiskedestination.S05E04.SWEDiSH.1080p.WEB.X264-EXECUTION
2019-04-09 07:25:42 Fiskedestination.S05E01.SWEDiSH.1080p.WEB.X264-EXECUTION
2019-04-09 07:25:55 Killing.Eve.S02E01.iTALiAN.DiRFiX.720p.WEB.h264-ENCRyPTED
2019-04-09 07:26:42 Fiskedestination.S05E03.SWEDiSH.1080p.WEB.X264-EXECUTION
2019-04-09 07:27:13 Ex.On.The.Beach.Danmark.S02E12.DANiSH.1080p.WEB.x264-DANES
2019-04-09 07:27:43 Fiskedestination.S05E02.SWEDiSH.1080p.WEB.X264-EXECUTION
2019-04-09 07:33:11 Rene_LaVice_-_BBC_Radio1s_Drum_and_Bass_Show__Incl_Dom_and_Roland_Guestmix-SAT-04-09-2019-TALiON
2019-04-09 07:42:19 8.Out.Of.10.Cats.S21E03.1080p.HDTV.x264-PLUTONiUM
2019-04-09 07:44:59 Hughesy.We.Have.A.Problem.S03E11.1080p.HDTV.x264-PLUTONiUM
2019-04-09 07:46:14 Ask.This.Old.House.S17E16.Paint.Metal.Railing.Wine.Rack.720p.HDTV.x264-W4F
2019-04-09 07:46:23 Ask.This.Old.House.S17E16.Paint.Metal.Railing.Wine.Rack.HDTV.x264-W4F
2019-04-09 07:47:16 Ask.This.Old.House.S17E17.Prairie.Grasses.Wildfires.Solar.Flower.720p.HDTV.x264-W4F
2019-04-09 07:47:25 Ask.This.Old.House.S17E17.Prairie.Grasses.Wildfires.Solar.Flower.HDTV.x264-W4F
2019-04-09 07:48:25 Inside.Central.Station.S01E06.1080p.HDTV.x264-PLUTONiUM
2019-04-09 07:49:26 Inside.Central.Station.S01E06.HDTV.x264-PLUTONiUM
2019-04-09 07:52:21 La.Gazzetta.Dello.Sport.04.09.2019.iTALiAN.RETAiL.eBook-DiVER
2019-04-09 07:59:33 Ray_Kandinski-Stenocactus_crispatus-(CCTS002)-WEB-2019-ENTANGLE
2019-04-09 07:59:44 VA-V__A_1.0-(KI005D)-WEB-2019-ENTANGLE
2019-04-09 08:00:58 PLURALSIGHT.BUILDING.FEATURES.FROM.NUMERIC.DATA-JGTiSO
2019-04-09 08:01:38 Vernon.Subutex.S01E01.FRENCH.1080p.HDTV.x264-HYBRiS
2019-04-09 08:02:30 Vernon.Subutex.S01E02.FRENCH.1080p.HDTV.x264-HYBRiS
2019-04-09 08:03:17 Vernon.Subutex.S01E03.FRENCH.1080p.HDTV.x264-HYBRiS
2019-04-09 08:11:05 Escaping.Polygamy.S04E12.REAL.WEB.h264-TBS
2019-04-09 08:11:13 Escaping.Polygamy.S04E12.REAL.720p.WEB.h264-TBS
2019-04-09 08:11:17 Art_Of_Drone-Das_Glockenspiel__Pet_Sematary-(AMBIDARK001)-WEB-2019-ENSLAVE
2019-04-09 08:11:29 Little_Symphony-Media_Dia-WEB-2019-ENSLAVE
2019-04-09 08:11:38 Midnat-Landskab-(FAINT012)-WEB-2019-ENSLAVE
2019-04-09 08:11:50 RCO-Radical_Chill_Out-(NOVUMXIII)-WEB-2019-ENSLAVE
2019-04-09 08:12:02 Subtle_Shift-Subtle_Shift-(SKY068)-WEB-2019-ENSLAVE
2019-04-09 08:12:11 VA-Balance_(Relaxing_Binaural_Yoga_Asmr_Meditation_Ambient)-(SOFACD027)-WEB-2019-ENSLAVE
2019-04-09 08:12:22 VA-University_of_Ambiance_Vol_1-(TRA003)-WEB-2019-ENSLAVE
2019-04-09 08:12:34 Yu_Namikosh-Ambiances_Naturelles_-_Natural_Soundscapes-WEB-2019-ENSLAVE
2019-04-09 08:14:37 Paradise.Hotel.S11E17.NORWEGiAN.720p.HDTV.x264-ALTiTV
2019-04-09 08:15:05 Better.Things.S03E06.SUBFRENCH.1080p.HDTV.H264-HYBRiS
2019-04-09 08:15:52 The.Big.Bang.Theory.S12E18.SUBFRENCH.1080p.HDTV.H264-HYBRiS
2019-04-09 08:16:39 Young.Sheldon.S02E18.SUBFRENCH.1080p.HDTV.H264-HYBRiS
2019-04-09 08:23:32 Unbreakable-Lived.to.Tell.S01E02.Dads.Garage.720p.WEBRip.x264-CAFFEiNE
2019-04-09 08:24:01 Fleabag.S02E06.HDTV.x264-PLUTONiUM
2019-04-09 08:26:00 Unbreakable-Lived.to.Tell.S01E02.Dads.Garage.WEBRip.x264-CAFFEiNE
2019-04-09 08:28:14 Haunted.Hospitals.S01E06.A.Question.of.Sanity.720p.WEBRip.x264-DHD
2019-04-09 08:29:01 Betrayed.2016.S03E06.Twos.Company.Three.is.Murder.720p.WEBRip.x264-CAFFEiNE
2019-04-09 08:29:12 Fleabag.S02E06.1080p.HDTV.x264-PLUTONiUM
2019-04-09 08:30:36 Haunted.Hospitals.S01E07.Maternity.Ward.Menace.720p.WEBRip.x264-DHD
2019-04-09 08:31:36 Betrayed.2016.S03E06.Twos.Company.Three.is.Murder.WEBRip.x264-CAFFEiNE
2019-04-09 08:32:08 Better.Things.S03E06.SUBFRENCH.720p.HDTV.x264-HYBRiS
2019-04-09 08:34:14 Bad.Mothers.S01E08.1080p.HDTV.H264-CBFM
2019-04-09 08:35:41 Four.Corners.S59E10.Interference.1080p.HDTV.H264-CBFM
2019-04-09 08:35:45 Four.Corners.S59E10.Interference.720p.HDTV.x264-CBFM
2019-04-09 08:38:29 Australian.Story.S24E08.The.Seekers.720p.HDTV.x264-CBFM
2019-04-09 08:40:18 House.Hunters.S159E15.Going.Tiny.in.Palm.Springs.1080p.WEB.x264-CAFFEiNE
2019-04-09 08:40:57 Deadwind.S01E05.FRENCH.720p.HDTV.x264-SH0W
2019-04-09 08:41:01 Deadwind.S01E06.FRENCH.720p.HDTV.x264-SH0W
2019-04-09 08:41:04 Deadwind.S01E07.FRENCH.720p.HDTV.x264-SH0W
2019-04-09 08:41:24 Life.in.Pieces.S03E11.FRENCH.720p.HDTV.x264-SH0W
2019-04-09 08:41:28 House.Hunters.S159E15.Going.Tiny.in.Palm.Springs.720p.WEB.x264-CAFFEiNE
2019-04-09 08:41:45 Pierre.Croce.Powerpoint.Comedy.2018.FRENCH.HDTV.x264-SH0W
2019-04-09 08:41:53 Pierre.Croce.Powerpoint.Comedy.2018.FRENCH.720p.HDTV.x264-SH0W
2019-04-09 08:42:00 Pierre.Croce.Powerpoint.Comedy.2018.FRENCH.1080p.HDTV.H264-SH0W
2019-04-09 08:42:11 L.Homme.Et.La.Foret.Part.1.2018.DOC.FRENCH.HDTV.x264-SH0W
2019-04-09 08:42:18 L.Homme.Et.La.Foret.Part.1.2018.DOC.FRENCH.720p.HDTV.x264-SH0W
2019-04-09 08:42:26 L.Homme.Et.La.Foret.Part.2.FiNAL.2018.DOC.FRENCH.HDTV.x264-SH0W
2019-04-09 08:42:32 L.Homme.Et.La.Foret.Part.2.FiNAL.2018.DOC.FRENCH.720p.HDTV.x264-SH0W
2019-04-09 08:44:21 House.Hunters.S159E15.Going.Tiny.in.Palm.Springs.WEB.x264-CAFFEiNE
2019-04-09 08:45:45 How.Its.Made.S18E08.1080p.HDTV.H264-GIMINI
2019-04-09 08:46:46 How.Its.Made.S18E09.1080p.HDTV.H264-GIMINI
2019-04-09 08:47:47 How.Its.Made.S18E10.1080p.HDTV.H264-GIMINI
2019-04-09 08:48:07 VA-A_Good_Day_Vol_2_(Perfect_Deep_House_And_House_Tunes._Enjoy_Your_Day.)-(LDM51)-WEB-2019-NDE
2019-04-09 08:48:48 How.Its.Made.S18E11.1080p.HDTV.H264-GIMINI
2019-04-09 08:50:06 Danmaku_Unlimited_3_NSW-LUBE
2019-04-09 08:50:38 VA-Best_Traxx_03-(COF1903)-WEB-2019-NDE
2019-04-09 08:52:06 VA-Black_050-(BRR050)-WEB-2019-NDE
2019-04-09 08:52:35 Media.Watch.2019.04.08.720p.HDTV.x264-CBFM
2019-04-09 08:54:26 VA-Deep_House_Triumph-(7640168997304)-WEB-2019-NDE
2019-04-09 08:57:16 House.Hunters.International.S137E07.Starting.a.New.Life.in.Bali.720p.WEBRip.x264-CAFFEiNE
2019-04-09 08:57:19 Operation.Stonehenge.What.Lies.Beneath.S01E01.1080p.HDTV.H264-UNDERBELLY
2019-04-09 08:57:47 VA-ERNEST_And_FRANK__WMC_SAMPLER_2019-(735119050744)-WEB-2019-NDE
2019-04-09 08:57:57 Mat_Prime_-_Sunflower_(House_Extended_Remix)-(JFR_015)-SINGLE-WEB-2019-ZzZz
2019-04-09 08:58:59 House.Hunters.International.S137E07.Starting.a.New.Life.in.Bali.WEBRip.x264-CAFFEiNE
2019-04-09 08:59:20 Acues_-_Vitaly-(UA035)-WEB-2019-JUSTiFY
2019-04-09 08:59:43 Mickey_Froloff_-_Oxana-(YAVR174)-SINGLE-WEB-2019-JUSTiFY
2019-04-09 09:00:41 Shadowhunters.The.Mortal.Instruments.S03E17.1080p.WEB.X264-METCON
2019-04-09 09:00:41 Shadowhunters.The.Mortal.Instruments.S03E17.1080p.WEB.x264-STRiFE
2019-04-09 09:00:46 VA-Essence_Of_Deep_House_Vol_6-(GROOVE198)-WEB-2019-NDE
2019-04-09 09:01:03 The.Enemy.Within.S01E07.1080p.WEB.H264-AMCON
2019-04-09 09:01:15 Iconoclasts_NSW-LUBE
2019-04-09 09:02:17 The.Enemy.Within.S01E07.iNTERNAL.720p.WEB.H264-AMRAP
2019-04-09 09:02:27 VA-House_Box_Records_VA_001-(VA001)-WEB-2019-NDE
2019-04-09 09:02:42 Shadowhunters.The.Mortal.Instruments.S03E17.iNTERNAL.720p.WEB.X264-AMRAP
2019-04-09 09:05:05 Shadowhunters.The.Mortal.Instruments.S03E17.iNTERNAL.1080p.WEB.h264-BAMBOOZLE
2019-04-09 09:07:59 VA-Ibiza_Deep_House-(OJR19037OJRC)-WEB-2019-NDE
2019-04-09 09:09:37 VA-I_Love_Jango_Vol_4-(JR511)-WEB-2019-NDE
2019-04-09 09:11:21 Andy_Bar_-_Hoch_Die_Tassen-SINGLE-WEB-DE-2019-JUSTiFY
2019-04-09 09:14:09 VA-Melodic_Progression-(BSD2019055)-WEB-2019-NDE
2019-04-09 09:14:15 Fairy.Gone.E01.1080p.WEB.x264-URANiME
2019-04-09 09:15:02 24.Hours.In.Police.Custody.S08E05.The.Detective.And.The.Surgeon.HDTV.x264-PLUTONiUM
2019-04-09 09:15:25 Jesus.His.Life.S01E05.WEB.h264-TBS
2019-04-09 09:15:34 Jesus.His.Life.S01E05.720p.WEB.h264-TBS
2019-04-09 09:15:34 Worlds.Greatest.Food.Markets.S01E01.1080p.HDTV.H264-UNDERBELLY
2019-04-09 09:15:42 Fairy.Gone.E01.720p.WEB.x264-URANiME
2019-04-09 09:16:15 Jesus.His.Life.S01E06.WEB.h264-TBS
2019-04-09 09:16:26 Jesus.His.Life.S01E06.720p.WEB.h264-TBS
2019-04-09 09:16:44 Fairy.Gone.E01.WEB.x264-URANiME
2019-04-09 09:17:25 24.Hours.In.Police.Custody.S08E05.The.Detective.And.The.Surgeon.720p.HDTV.x264-PLUTONiUM
2019-04-09 09:17:41 VA-Music_Is_Your_Life_EDM_Vol_24-(SLR498)-WEB-2019-NDE
2019-04-09 09:17:45 Gegege.No.Kitaro.S01E50.1080p.WEB.x264-URANiME
2019-04-09 09:19:46 VA-Oscillations-(4061707153402)-WEB-2019-NDE
2019-04-09 09:22:33 VA-Panal_Records_Various_Artists_(3o_Aniversary)-(PNL33)-WEB-2019-NDE
2019-04-09 09:25:00 VA-RABBIT_DEEP_HOUSE-(CAT287520)-WEB-2019-NDE
2019-04-09 09:28:19 VA-SEXY_TRAP_BOMB-(SIFARE0020)-WEB-2019-NDE
2019-04-09 09:28:22 Melbourne.International.Comedy.Festival.2019.Allstars.Supershow.HDTV.x264-PLUTONiUM
2019-04-09 09:29:25 Melbourne.International.Comedy.Festival.2019.Allstars.Supershow.1080p.HDTV.x264-PLUTONiUM
2019-04-09 09:30:36 VA-Thank_God_Its_Deep_House_Music_Vol_2-(COMP002)-WEB-2019-NDE
2019-04-09 09:31:29 24.Hours.In.Police.Custody.S08E05.The.Detective.And.The.Surgeon.1080p.HDTV.h264-PLUTONiUM
2019-04-09 09:32:34 VA-The_Journey_Pt._4_(Mixed_By_Emok)-(IBOGADIGITAL528)-WEB-2019-NDE
2019-04-09 09:33:12 Celebs.On.The.Ranch.S01E06.PDTV.x264-PLUTONiUM
2019-04-09 09:36:23 VA-The_Unknown_Minimalism_And_Atmospheres-(KOK2291)-WEB-2007-NDE
2019-04-09 09:37:42 Those.Who.Cant.S03E13.UNCENSORED.720p.WEBRip.x264-TBS
2019-04-09 09:37:57 101.Dalmatian.Street.S01E04B.FRENCH.720p.HDTV.x264-D4KiD
2019-04-09 09:38:06 Those.Who.Cant.S03E13.UNCENSORED.1080p.WEBRip.x264-TBS
2019-04-09 09:38:22 Those.Who.Cant.S03E13.UNCENSORED.WEBRip.x264-TBS
2019-04-09 09:38:25 VA-UX_VA_1-(UXV001)-WEB-2019-NDE
2019-04-09 09:38:44 Made.In.Chelsea.S17E03.PDTV.x264-PLUTONiUM
2019-04-09 09:38:46 101.Dalmatian.Street.S01E04B.FRENCH.HDTV.x264-D4KiD
2019-04-09 09:39:33 Snack.World.S01E01.FRENCH.720p.HDTV.x264-D4KiD
2019-04-09 09:40:20 Snack.World.S01E01.FRENCH.HDTV.x264-D4KiD
2019-04-09 09:41:07 Snack.World.S01E02.FRENCH.720p.HDTV.x264-D4KiD
2019-04-09 09:41:55 Snack.World.S01E02.FRENCH.HDTV.x264-D4KiD
2019-04-09 09:42:43 VA-Welcome_To_Spring_Vol_65-(SRR0065)-WEB-2019-NDE
2019-04-09 09:47:40 Bargoens.S02E07.FLEMISH.WEB.H264-MERCATOR
2019-04-09 09:49:11 Stupid_Goldfish_ft._Evelyn_Weigert_-_Sneakers_(Frank_Rosin_Remix)-(PBM104R)-SINGLE-WEB-2019-JUSTiFY
2019-04-09 09:49:30 Huizenjagers.S04E38.FLEMISH.WEB.x264-MERCATOR
2019-04-09 09:49:41 The.Story.of.God.With.Morgan.Freeman.S03E05.Divine.Secrets.1080p.WEB.h264-TBS
2019-04-09 09:50:25 Nachtwacht.S03E09.FLEMISH.WEB.H264-MERCATOR
2019-04-09 09:51:11 Blind.Gekocht.Magazine.S01E02.FLEMISH.WEB.x264-MERCATOR
2019-04-09 09:52:17 Blind.Gekocht.S01E02.FLEMISH.WEB.x264-MERCATOR
2019-04-09 10:01:34 Factcheckers.S01E04.FLEMISH.WEB.H264-MERCATOR
2019-04-09 10:04:27 Huizenjagers.S04E39.FLEMISH.WEB.x264-MERCATOR
2019-04-09 10:05:26 Gent.West.S02E10.FLEMISH.WEB.x264-MERCATOR
2019-04-09 10:06:18 Nachtwacht.S04E09.FLEMISH.WEB.H264-MERCATOR
2019-04-09 10:07:38 Anale.Entjungferung.5.GERMAN.XXX.DVDRip.x264-EGP
2019-04-09 10:09:43 Control.Pedro.S03E07.FLEMISH.WEB.x264-MERCATOR
2019-04-09 10:09:54 Anale.Entjungferung.4.GERMAN.XXX.DVDRip.x264-EGP
2019-04-09 10:12:09 Kelgukoerad.S12E01.EE.1080p.HDTV.h264-EMX
2019-04-09 10:12:12 Io.Donna.NR14.2019.iTALiAN.RETAiL.MAGAZiNE.eBook-DiVER
2019-04-09 10:12:36 Anale.Entjungferung.5.GERMAN.XXX.COMPLETE.PAL.DVDR-EGP
2019-04-09 10:12:56 Goedele.On.Top.S02E08.FLEMISH.WEB.x264-MERCATOR
2019-04-09 10:13:35 Huizenjagers.S04E40.FLEMISH.WEB.x264-MERCATOR
2019-04-09 10:14:01 Anale.Entjungferung.4.GERMAN.XXX.COMPLETE.PAL.DVDR-EGP
2019-04-09 10:14:38 Nachtwacht.S01E10.FLEMISH.WEB.H264-MERCATOR
2019-04-09 10:15:21 Kelgukoerad.S12E02.EE.1080p.HDTV.h264-EMX
2019-04-09 10:16:11 Nachtwacht.S02E10.FLEMISH.WEB.H264-MERCATOR
2019-04-09 10:17:00 Nachtwacht.S03E10.FLEMISH.WEB.H264-MERCATOR
2019-04-09 10:18:47 Kelgukoerad.S12E03.EE.1080p.HDTV.h264-EMX
2019-04-09 10:19:10 Naked.Attraction.S02E03.NLSUBBED.WEB.x264-MERCATOR
2019-04-09 10:21:12 Pano.2019.Missie.Chaos.FLEMISH.WEB.H264-MERCATOR
2019-04-09 10:22:03 Kelgukoerad.S12E04.EE.1080p.HDTV.h264-EMX
2019-04-09 10:25:06 Kelgukoerad.S12E05.EE.1080p.HDTV.h264-EMX
2019-04-09 10:25:30 Temptation.Island.BE.S11E09.FLEMISH.WEB.x264-MERCATOR
2019-04-09 10:26:33 Van.Algemeen.Nut.S02E08.FLEMISH.WEB.H264-MERCATOR
2019-04-09 10:27:32 Vranckx.2019.Ingepalmd.FLEMISH.WEB.H264-MERCATOR
2019-04-09 10:28:03 Kelgukoerad.S12E06.EE.1080p.HDTV.h264-EMX
2019-04-09 10:31:07 Kelgukoerad.S12E07.EE.1080p.HDTV.h264-EMX
2019-04-09 10:31:13 Stephen.Colbert.2019.04.08.Zach.Galifianakis.720p.WEB.x264-TBS
2019-04-09 10:31:33 Stephen.Colbert.2019.04.08.Zach.Galifianakis.WEB.x264-TBS
2019-04-09 10:31:49 Stephen.Colbert.2019.04.08.Zach.Galifianakis.1080p.WEB.x264-TBS
2019-04-09 10:33:55 Kelgukoerad.S12E08.EE.1080p.HDTV.h264-EMX
2019-04-09 10:35:15 Vrolijk.Vlaanderen.S01E114.FLEMISH.WEB.H264-MERCATOR
2019-04-09 10:36:55 Kelgukoerad.S12E09.EE.1080p.HDTV.h264-EMX
2019-04-09 10:39:48 Kelgukoerad.S12E10.EE.1080p.HDTV.h264-EMX
2019-04-09 10:40:48 La.Lettura.NR384.2019.iTALiAN.RETAiL.MAGAZiNE.eBook-DiVER
2019-04-09 10:40:59 Chris.And.Julias.Sunday.Night.Takeaway.S01E07.720p.HDTV.x264-CCT
2019-04-09 10:41:11 Therapie.S01E03.FLEMISH.WEB.H264-MERCATOR
2019-04-09 10:43:00 Kelgukoerad.S12E11.EE.1080p.HDTV.h264-EMX
2019-04-09 10:44:10 Cafe.De.Mol.S02E05.FLEMISH.WEB.x264-MERCATOR
2019-04-09 10:44:41 WWE.Table.For.3.Independent.Spirit.720p.WEB.h264-LiGATE
2019-04-09 10:46:02 WWE.Table.For.3.Independent.Spirit.WEB.h264-LiGATE
2019-04-09 10:46:06 De.Mol.S07E05.FLEMISH.WEB.x264-MERCATOR
2019-04-09 10:46:09 Kelgukoerad.S12E12.EE.1080p.HDTV.h264-EMX
2019-04-09 10:48:12 Leonie.Zkt.Lief.Weekoverzicht.S01E04.FLEMISH.WEB.x264-MERCATOR
2019-04-09 10:50:38 James.Corden.2019.04.08.Bill.Hader.720p.WEB.x264-TBS
2019-04-09 10:50:48 James.Corden.2019.04.08.Bill.Hader.WEB.x264-TBS
2019-04-09 10:50:49 James.Corden.2019.04.08.Bill.Hader.1080p.WEB.x264-TBS
2019-04-09 10:51:33 LikeMe.S01E13.FLEMISH.WEB.H264-MERCATOR
2019-04-09 10:52:18 Nachtwacht.2019.Part.9.FLEMISH.WEB.H264-MERCATOR
2019-04-09 10:53:11 Schatten.Van.Mensen.S01E02.FLEMISH.WEB.x264-MERCATOR
2019-04-09 10:53:33 Chris.And.Julias.Sunday.Night.Takeaway.S01E07.1080p.HDTV.x264-CCT
2019-04-09 10:54:34 Schoeters.En.Bellen.S01E05.FLEMISH.WEB.H264-MERCATOR
2019-04-09 10:55:31 Trafiek.Axel.S01E07.FLEMISH.WEB.x264-MERCATOR
2019-04-09 10:56:34 Kelgukoerad.S12E13.EE.1080p.HDTV.h264-EMX
2019-04-09 10:57:12 Down.Met.Johnny.S03E04.DUTCH.720p.HDTV.x264-DTOD
2019-04-09 10:57:22 Undercover.S01E07.FLEMISH.WEB.H264-MERCATOR
2019-04-09 10:58:07 Twee.Tot.De.Zesde.Macht.S06E07.FLEMISH.WEB.H264-MERCATOR
2019-04-09 10:58:57 Weg.Zijn.Wij.S03E07.FLEMISH.WEB.H264-MERCATOR
2019-04-09 10:59:57 Down.The.Road.S02E10.FLEMISH.WEB.H264-MERCATOR
2019-04-09 11:00:35 Komen.Te.Gaan.S01E04.FLEMISH.WEB.H264-MERCATOR
2019-04-09 11:00:45 American.Idol.S17E11.WEB.h264-TBS
2019-04-09 11:00:59 The.Fix.2019.S01E04.1080p.WEB.h264-TBS
2019-04-09 11:01:01 American.Idol.S17E11.720p.WEB.h264-TBS
2019-04-09 11:01:28 American.Idol.S17E11.1080p.WEB.h264-TBS
2019-04-09 11:02:34 Katie.Price.My.Crazy.Life.S03E01.The.Only.Way.Is.Up.WEB.x264-GIMINI
2019-04-09 11:03:13 The.Voice.S16E10.WEB.h264-TBS
2019-04-09 11:03:14 Taali-I_Am_Here-WEB-2019-sceau
2019-04-09 11:03:28 The.Enemy.Within.S01E07.iNTERNAL.720p.WEB.h264-BAMBOOZLE
2019-04-09 11:03:32 The.Voice.S16E10.720p.WEB.h264-TBS
2019-04-09 11:03:36 Katie.Price.My.Crazy.Life.S03E01.The.Only.Way.Is.Up.720p.WEB.x264-GIMINI
2019-04-09 11:04:13 The.Voice.S16E10.1080p.WEB.h264-TBS
2019-04-09 11:04:38 Katie.Price.My.Crazy.Life.S03E01.The.Only.Way.Is.Up.1080p.WEB.x264-GIMINI
2019-04-09 11:05:16 Sette.NR14.2019.iTALiAN.RETAiL.MAGAZiNE.eBook-DiVER
2019-04-09 11:06:13 The.Fix.2019.S01E04.iNTERNAL.720p.WEB.h264-BAMBOOZLE
2019-04-09 11:07:51 Worlds.Busiest.Train.Stations.S01E01.720p.HDTV.x264-PLUTONiUM
2019-04-09 11:10:07 Fill.Me.With.Your.Orgasm.7.XXX.DVDRip.x264-DigitalSin
2019-04-09 11:10:26 Married.At.First.Sight.AU.S06E41.HDTV.x264-CCT
2019-04-09 11:10:40 Married.At.First.Sight.AU.S06E41.720p.HDTV.x264-CCT
2019-04-09 11:10:55 L.Economia.Del.Corriere.Della.Sera.04.08.2019.iTALiAN.RETAiL.eBook-DiVER
2019-04-09 11:11:53 Married.At.First.Sight.AU.S06E41.1080p.HDTV.h264-CCT
2019-04-09 11:13:19 Murder.Machine.Mini.RIP-SiMPLEX
2019-04-09 11:13:31 Malevolence.The.Sword.of.Ahkranox-TiNYiSO
2019-04-09 11:17:24 Bad.Pad.v1.54.x64-SiMPLEX
2019-04-09 11:17:59 Bad.Pad.v1.54.x86-SiMPLEX
2019-04-09 11:25:10 Wereldreis.Op.Wielen.S01E23.DUTCH.720p.HDTV.x264-DTOD
2019-04-09 11:25:43 Klaus_Fiehe--1LiVE_Fiehe-DVBS-04-07-2019-OMA
2019-04-09 11:25:51 Zvezde.Plesejo.S03E04.SI.HDTV.x264-RADiOACTiVE
2019-04-09 11:25:57 Zvezde.Plesejo.S03E04.SI.720p.HDTV.x264-RADiOACTiVE
2019-04-09 11:27:16 Dancing.With.The.Stars.AU.S16E08.720p.HDTV.x264-CBFM
2019-04-09 11:27:32 Gungrave.DiSC2.MULTi.COMPLETE.BLURAY-USELESS
2019-04-09 11:28:04 Dancing.With.The.Stars.AU.S16E08.HDTV.x264-CCT
2019-04-09 11:32:00 FAR.Lone.Sails.v1.06-I_KnoW
2019-04-09 11:35:18 Worlds.Busiest.Train.Stations.S01E01.1080p.HDTV.h264-PLUTONiUM
2019-04-09 11:43:22 Milijonar.S01E16.SI.HDTV.x264-RADiOACTiVE
2019-04-09 11:43:28 Milijonar.S01E16.SI.720p.HDTV.x264-RADiOACTiVE
2019-04-09 11:47:38 Stephanie_Milis_-_The_Game-(505903_3420113)-SINGLE-WEB-2019-ZzZz
2019-04-09 11:51:09 Robothorium.Sci-fi.Dungeon.Crawler.v1.2.-SiMPLEX
2019-04-09 11:51:11 Robothorium.Sci-fi
2019-04-09 11:54:14 Nelke.and.the.Legendary.Alchemists.Ateliers.of.the.New.World.Update.v1.01-CODEX
2019-04-09 11:57:00 Gigantes.S02E03.SPANiSH.1080p.HDTV.x264-FERiCE
2019-04-09 11:57:21 Gigantes.S02E03.SPANiSH.720p.HDTV.x264-FERiCE
2019-04-09 11:57:42 Gigantes.S02E03.SPANiSH.HDTV.x264-FERiCE
2019-04-09 11:58:03 Navy.Investigacion.Criminal.S16E17.SPANiSH.1080p.HDTV.x264-FERiCE
2019-04-09 11:58:08 Robothorium.Sci-fi.Dungeon.Crawler.v1.2.DIRFIX-SiMPLEX
2019-04-09 11:58:24 Navy.Investigacion.Criminal.S16E17.SPANiSH.720p.HDTV.x264-FERiCE
2019-04-09 11:58:45 Navy.Investigacion.Criminal.S16E17.SPANiSH.HDTV.x264-FERiCE
2019-04-09 11:59:01 Ela.Sti.Thesi.Mou.S03E108.GREEK.720p.HDTV.x264-IcHoR
2019-04-09 11:59:21 Ela.Sti.Thesi.Mou.S03E108.GREEK.HDTV.x264-IcHoR
2019-04-09 11:59:38 Ela.Sti.Thesi.Mou.S03E109.GREEK.720p.HDTV.x264-IcHoR
2019-04-09 11:59:56 Ela.Sti.Thesi.Mou.S03E109.GREEK.HDTV.x264-IcHoR
2019-04-09 12:00:14 Min.Arhizeis.Ti.Mourmoura.S06E38.GREEK.720p.HDTV.x264-IcHoR
2019-04-09 12:00:22 StrikeForce.Kitty.v1.2-SiMPLEX
2019-04-09 12:00:33 Min.Arhizeis.Ti.Mourmoura.S06E38.GREEK.HDTV.x264-IcHoR
2019-04-09 12:00:49 Min.Arhizeis.Ti.Mourmoura.S06E39.GREEK.720p.HDTV.x264-IcHoR
2019-04-09 12:01:09 Min.Arhizeis.Ti.Mourmoura.S06E39.GREEK.HDTV.x264-IcHoR
2019-04-09 12:01:28 Vinylio.2019.02.20.GREEK.720p.HDTV.x264-IcHoR
2019-04-09 12:01:56 Vinylio.2019.02.20.GREEK.1080p.HDTV.x264-IcHoR
2019-04-09 12:02:08 Copa.Del.Rey.2019.02.27.Semi.Final.Real.Madrid.vs.Barcelona.GREEK.1080p.HDTV.x264-IcHoR
2019-04-09 12:02:21 Copa.Del.Rey.2019.02.27.Semi.Final.Real.Madrid.vs.Barcelona.GREEK.720p.HDTV.x264-IcHoR
2019-04-09 12:02:35 Copa.Del.Rey.2019.02.28.Semi.Final.Valencia.vs.Real.Betis.GREEK.1080p.HDTV.x264-IcHoR
2019-04-09 12:02:48 Copa.Del.Rey.2019.02.28.Semi.Final.Valencia.vs.Real.Betis.GREEK.720p.HDTV.x264-IcHoR
2019-04-09 12:05:44 Vikend.za.milion.1987.SLOVAK.PDTV.x264-I_KnoW
2019-04-09 12:11:04 Las_Bibas_From_Vizcaya_-_Headhunter-(SWISH_162)-WEB-2019-ZzZz
2019-04-09 12:11:25 Chicago.Fire.S07E07.iTALiAN.720p.WEB.x264-HWD
2019-04-09 12:11:54 Chicago.Fire.S07E07.iTALiAN.MULTi.1080p.WEB.x264-HWD
2019-04-09 12:12:36 DCs.Legends.Of.Tomorrow.S04E04.iTALiAN.720p.WEB.x264-HWD
2019-04-09 12:12:51 DCs.Legends.Of.Tomorrow.S04E04.iTALiAN.MULTi.1080p.WEB.x264-HWD
2019-04-09 12:13:35 Shameless.US.S09E09.iTALiAN.720p.WEB.x264-HWD
2019-04-09 12:13:45 Liam_Van_Dyke_-_Always_High-(BB_379)-WEB-2019-ZzZz
2019-04-09 12:13:49 Shameless.US.S09E09.iTALiAN.MULTi.1080p.WEB.x264-HWD
2019-04-09 12:14:34 The.Goldbergs.S06E05.iTALiAN.720p.WEB.x264-HWD
2019-04-09 12:14:34 The.Goldbergs.S06E06.iTALiAN.720p.WEB.x264-HWD
2019-04-09 12:15:16 The.Goldbergs.S06E05.iTALiAN.MULTi.1080p.WEB.x264-HWD
2019-04-09 12:15:18 The.Goldbergs.S06E06.iTALiAN.MULTi.1080p.WEB.x264-HWD
2019-04-09 12:16:05 The.Good.Place.S03E11.iTALiAN.720p.WEB.x264-HWD
2019-04-09 12:16:06 The.Good.Place.S03E12.iTALiAN.720p.WEB.x264-HWD
2019-04-09 12:16:07 The.Good.Place.S03E13.iTALiAN.720p.WEB.x264-HWD
2019-04-09 12:16:51 The.Good.Place.S03E11.iTALiAN.MULTi.1080p.WEB.x264-HWD
2019-04-09 12:16:52 The.Good.Place.S03E12.iTALiAN.MULTi.1080p.WEB.x264-HWD
2019-04-09 12:16:53 The.Good.Place.S03E13.iTALiAN.MULTi.1080p.WEB.x264-HWD
2019-04-09 12:18:26 Down.Met.Johnny.S03E04.DUTCH.1080p.HDTV.x264-DTOD
2019-04-09 12:19:17 Whiskey.Cavalier.S01E05.iTALiAN.720p.WEB.x264-HWD
2019-04-09 12:19:33 Whiskey.Cavalier.S01E05.iTALiAN.MULTi.1080p.WEB.x264-HWD
2019-04-09 12:21:12 Saladin_feat_Omz_-_Fight_For_Love-(418M_178)-WEB-2019-ZzZz
2019-04-09 12:21:29 Will.and.Grace.S10E03.iTALiAN.720p.WEB.x264-HWD
2019-04-09 12:21:30 Will.and.Grace.S10E04.iTALiAN.720p.WEB.x264-HWD
2019-04-09 12:21:55 Will.and.Grace.S10E03.iTALiAN.MULTi.1080p.WEB.x264-HWD
2019-04-09 12:21:57 Will.and.Grace.S10E04.iTALiAN.MULTi.1080p.WEB.x264-HWD
2019-04-09 12:23:33 Supernatural.S12E01.iTALiAN.720p.WEB.x264-HWD
2019-04-09 12:23:34 Supernatural.S12E02.iTALiAN.720p.WEB.x264-HWD
2019-04-09 12:24:15 Supernatural.S12E01.iTALiAN.1080p.WEB.x264-HWD
2019-04-09 12:24:18 Supernatural.S12E02.iTALiAN.1080p.WEB.x264-HWD
2019-04-09 12:40:29 Hyundai.A-League.Grand.Final.2007.Melbourne.Victory.DVDRip.x264-WaLMaRT
2019-04-09 12:44:53 The.Ghan-Australias.Greatest.Train.Journey.2018.DVDRip.x264-WaLMaRT
2019-04-09 12:48:41 Rogue.Empire.Dungeon.Crawler.RPG.Update.v1.0.11-PLAZA
2019-04-09 12:50:01 BangBros18.19.04.09.Autumn.Falls.XXX.1080p.MP4-KTR
2019-04-09 12:50:04 Wereldreis.Op.Wielen.S01E23.DUTCH.1080p.HDTV.x264-DTOD
2019-04-09 12:50:21 Far.from.Heaven.2002.COMPLETE.BLURAY-WESTCOAST
2019-04-09 12:55:22 BangBros18.19.04.09.Autumn.Falls.XXX.2160p.MP4-KTR
2019-04-09 12:56:28 Caligula.1979.REMASTERED.GERMAN.1080p.BluRay.x264-GOREHOUNDS
2019-04-09 12:57:32 Beyond.the.Stars.1989.GERMAN.TRAILER.VHSRiP.x264-TREViEW
2019-04-09 12:57:55 Das.MI-8.Projekt.1988.GERMAN.TRAILER.VHSRiP.x264-TREViEW
2019-04-09 12:58:12 Les.Patterson.rettet.die.Welt.1987.GERMAN.TRAILER.VHSRiP.x264-TREViEW
2019-04-09 12:58:34 Running.Hero.1990.GERMAN.TRAILER.VHSRiP.x264-TREViEW
2019-04-09 12:59:15 Caligula.1979.BONUS.DUAL.COMPLETE.BLURAY-GOREHOUNDS
2019-04-09 13:01:40 Caligula.1979.REMASTERED.DUAL.COMPLETE.BLURAY-GOREHOUNDS
2019-04-09 13:02:27 The.Big.Escape.S02E06.DUTCH.720p.HDTV.x264-DTOD
2019-04-09 13:06:46 Hockeyklubben.S01E22.SWEDiSH.720p.WEB.H264-EXECUTION
2019-04-09 13:07:15 Hockeyklubben.S01E22.SWEDiSH.1080p.WEB.H264-EXECUTION
2019-04-09 13:09:21 MetArt.19.04.09.Avery.Follow.Your.Dreams.XXX.1080p.MP4-KTR
2019-04-09 13:10:57 ATKGirlfriends.19.04.09.Melody.Marks.And.Rosie.Reefer.XXX.1080p.MP4-KTR
2019-04-09 13:13:06 ATKGirlfriends.19.04.09.Melody.Marks.And.Rosie.Reefer.XXX.2160p.MP4-KTR
2019-04-09 13:13:06 Robur.Der.Herr.der.sieben.Kontinente.1961.German.DL.1080p.BluRay.AVC-AVCiHD
2019-04-09 13:14:22 The_Maine-You_Are_Ok-2019-RTB
2019-04-09 13:14:45 BlacksOnBlondes.19.04.09.Mi.Ha.Doan.XXX.1080p.MP4-KTR
2019-04-09 13:17:09 PornstarPlatinum.19.04.09.Ari.Staccs.Hard.Cock.Satisfaction.Guaranteed.XXX.2160p.MP4-KTR
2019-04-09 13:19:00 Salvage.Hunters.S10E14.WEB.x264-GIMINI
2019-04-09 13:20:02 Salvage.Hunters.S10E14.1080p.WEB.x264-GIMINI
2019-04-09 13:21:04 Salvage.Hunters.S12E09.WEB.x264-GIMINI
2019-04-09 13:22:06 Salvage.Hunters.S12E09.720p.WEB.x264-GIMINI
2019-04-09 13:23:08 Anilos.19.04.09.Zara.Toy.Time.XXX.1080p.MP4-KTR
2019-04-09 13:23:09 Salvage.Hunters.S12E09.1080p.WEB.x264-GIMINI
2019-04-09 13:24:39 NubileFilms.19.04.09.Nelly.Kent.The.Way.You.Like.It.XXX.1080p.MP4-KTR
2019-04-09 13:25:38 Nubiles.19.04.09.Kitty.Fox.Sweet.Little.Kitty.XXX.1080p.MP4-KTR
2019-04-09 13:26:42 Nubiles.19.04.09.Terry.Bloom.Get.Me.Wet.XXX.1080p.MP4-KTR
2019-04-09 13:27:57 Nubiles.19.04.09.Violet.Vixen.Toying.Around.XXX.1080p.MP4-KTR
2019-04-09 13:29:45 Hegre.19.04.09.Angelique.First.Time.Orgasm.Massage.XXX.1080p.MP4-KTR
2019-04-09 13:31:12 Hegre.19.04.09.Angelique.First.Time.Orgasm.Massage.XXX.2160p.MP4-KTR
2019-04-09 13:31:46 Unethical_Human_Experiments-Grotesque_Failure_in_the_Process_Unfit_Individuals-CD-2019-DiTCH
2019-04-09 13:33:57 ALSScan.19.04.09.Jocelyn.Sweets.Sweet.Treat.BTS.XXX.1080p.MP4-KTR
2019-04-09 13:34:57 Plus.S44E08.SWEDiSH.720p.WEB.H264-EXECUTION
2019-04-09 13:35:27 Family.19.04.09.Kiara.Cole.Ive.Always.Wanted.To.Fuck.You.XXX.1080p.MP4-KTR
2019-04-09 13:35:28 Vulgore-Crevices_of_Obscura-CD-2019-DiTCH
2019-04-09 13:37:01 Le.Monde.09.Avril.2019.French.Retail.eBook-FMR
2019-04-09 13:37:11 Le.Monde.Supplement.Special.09.Avril.2019.French.Retail.eBook-FMR
2019-04-09 13:37:14 Spizoo.19.04.09.Edyn.Blair.Up.Close.And.Personal.XXX.1080p.MP4-KTR
2019-04-09 13:37:21 Le.Monde.10.Avril.2019.French.Retail.eBook-FMR
2019-04-09 13:38:26 The.Big.Escape.S02E06.DUTCH.1080p.HDTV.x264-DTOD
2019-04-09 13:39:05 VA-Annee_Du_Zouk_2019-WEB-FR-2019-AZF
2019-04-09 13:39:10 WatchYourWife.19.04.09.Addison.Lee.XXX.1080p.MP4-KTR
2019-04-09 13:44:43 Fleabag.S02E06.WEBRip.x264-LiGATE
2019-04-09 13:44:47 Kelgukoerad.S13E01.EE.1080p.HDTV.h264-EMX
2019-04-09 13:44:48 Salvage.Hunters.S10E14.720p.WEB.x264-GIMINI
2019-04-09 13:45:51 OyeLoca.19.04.09.Mariana.Martinez.Latin.Sperm.Skin.Care.XXX.1080p.MP4-KTR
2019-04-09 13:47:53 Kelgukoerad.S13E02.EE.1080p.HDTV.h264-EMX
2019-04-09 13:48:04 BFFS.19.04.09.Kara.Lee.Kiarra.Kai.And.Quinn.Wilde.Briding.Dirty.XXX.1080p.MP4-KTR
2019-04-09 13:51:05 Kelgukoerad.S13E03.EE.1080p.HDTV.h264-EMX
2019-04-09 13:53:16 ClubSeventeen.19.04.09.Taylor.Krystal.Solo.XXX.1080p.MP4-KTR
2019-04-09 13:53:27 HotAndMean.14.05.08.AJ.Applegate.Savannah.Fox.Filthy.Fuck.Part.One.INTERNAL.XXX.1080p.MP4-STARLET
2019-04-09 13:54:32 Kelgukoerad.S13E04.EE.1080p.HDTV.h264-EMX
2019-04-09 13:54:59 ClubSeventeen.19.04.09.Taylor.Krystal.Solo.XXX.2160p.MP4-KTR
2019-04-09 13:56:54 ClubSeventeen.19.04.09.Lindsey.Vood.Hardcore.XXX.INTERNAL.1080p.MP4-KTR
2019-04-09 13:57:35 Kelgukoerad.S13E05.EE.1080p.HDTV.h264-EMX
2019-04-09 13:59:24 WildOnCam.19.04.09.Sharon.Lee.Hardcore.XXX.1080p.MP4-KTR
2019-04-09 14:04:05 ALSScan.19.04.09.Jocelyn.Sweets.Sweet.Treat.BTS.XXX.2160p.MP4-KTR
2019-04-09 14:07:16 Family.19.04.09.Kiara.Cole.Ive.Always.Wanted.To.Fuck.You.XXX.2160p.MP4-KTR
2019-04-09 14:08:02 German_TOP100_Single_Charts_08_04_2019-MCG
2019-04-09 14:08:05 German_TOP100_Single_Charts_15_04_2019-MCG
2019-04-09 14:10:10 Spizoo.19.04.09.Edyn.Blair.Up.Close.And.Personal.XXX.2160p.MP4-KTR
2019-04-09 14:10:33 Det.Umulige.Landet.S01E05.NORWEGiAN.720p.HDTV.x264-NORPiLT
2019-04-09 14:13:17 WatchYourWife.19.04.09.Addison.Lee.XXX.2160p.MP4-KTR
2019-04-09 14:13:42 Brille.S11E06.NORWEGiAN.720p.WEB.x264-NORPiLT
2019-04-09 14:16:15 How.to.Train.Your.Dragon.The.Hidden.World.2019.720p.BluRay.X264-DEFLATE
2019-04-09 14:19:10 FTVGirls.19.04.09.Kenzie.Athletic.Intro.XXX.1080p.MP4-KTR
2019-04-09 14:19:17 How.to.Train.Your.Dragon.The.Hidden.World.2019.BDRip.X264-DEFLATE
2019-04-09 14:21:05 FTVGirls.19.04.09.Kenzie.Fashionably.Fit.XXX.1080p.MP4-KTR
2019-04-09 14:22:04 My_Time_at_Portia_NSW-VENOM
2019-04-09 14:24:06 FTVGirls.19.04.09.Kenzie.Athletic.Intro.XXX.2160p.MP4-KTR
2019-04-09 14:26:24 FTVGirls.19.04.09.Kenzie.Fashionably.Fit.XXX.2160p.MP4-KTR
2019-04-09 14:30:03 Synthsoldier_-_Sovereign-(DWX602)-SINGLE-WEB-2019-SRG
2019-04-09 14:30:10 How.to.Train.Your.Dragon.The.Hidden.World.2019.1080p.BluRay.X264-DEFLATE
2019-04-09 14:32:04 Duran_-_Acid_Rock-(NJ112)-SINGLE-WEB-2019-MMS
2019-04-09 14:33:43 E-Force_-_The_End-SINGLE-WEB-2019-MMS
2019-04-09 14:35:01 Synthsoldier_-_Sovereign-(DWX602)-SINGLE-WEB-2019-MMS_INT
2019-04-09 14:35:04 Marktcheck.2019-03-12.GERMAN.DOKU.HDTV.x264-ConNi
2019-04-09 14:35:17 Marktcheck.2019-03-12.GERMAN.DOKU.720p.HDTV.x264-ConNi
2019-04-09 14:35:30 Marktcheck.2019-03-19.GERMAN.DOKU.HDTV.x264-ConNi
2019-04-09 14:35:44 Marktcheck.2019-03-19.GERMAN.DOKU.720p.HDTV.x264-ConNi
2019-04-09 14:35:57 Marktcheck.2019-03-26.GERMAN.DOKU.HDTV.x264-ConNi
2019-04-09 14:36:05 Clive_King_And_Alee_-_Give_Me_What_You_Got-(GB018)-SINGLE-WEB-2019-SRG
2019-04-09 14:36:08 Marktcheck.2019-03-26.GERMAN.DOKU.720p.HDTV.x264-ConNi
2019-04-09 14:36:20 Marktcheck.2019-04-02.GERMAN.DOKU.HDTV.x264-ConNi
2019-04-09 14:36:31 Re-Style_x_Broken_Minds_x_Alee_-_Annihilation-SINGLE-WEB-2019-MMS_INT
2019-04-09 14:36:32 Marktcheck.2019-04-02.GERMAN.DOKU.720p.HDTV.x264-ConNi
2019-04-09 14:39:51 Krosis-Duplicity-SINGLE-WEB-2019-UTP
2019-04-09 14:40:02 JapanHDV.19.04.09.Megumi.Shino.And.Yui.Kawagoe.XXX.1080p.MP4-TRASHBIN
2019-04-09 14:41:00 GirlsOutWest.19.04.09.Evie.S.Secret.Package.XXX.1080p.MP4-TRASHBIN
2019-04-09 14:42:14 GirlsOutWest.19.04.09.Evie.S.Secret.Package.XXX.2160p.MP4-TRASHBIN
2019-04-09 14:42:46 E-Force_-_The_End_(Original_Mix)-(SCANTRAXX300)-SINGLE-WEB-2019-SRG
2019-04-09 14:44:12 Brille.S11E06.NORWEGiAN.1080p.WEB.x264-KOMPOST
2019-04-09 14:44:23 FTVMilfs.19.04.09.Elexis.Monroe.Looking.For.Fun.XXX.1080p.MP4-KTR
2019-04-09 14:44:56 Chasman-Synth-E-Fuge-(NUM807DIG1)-WEB-2018-MOHAWK
2019-04-09 14:46:10 Camp.Kulinaris.S02E31.NORWEGiAN.WEB.h264-KOMPOST
2019-04-09 14:46:31 Havna.S01E04.NORWEGiAN.1080p.WEB.x264-KOMPOST
2019-04-09 14:47:29 Havna.S01E05.NORWEGiAN.1080p.WEB.x264-KOMPOST
2019-04-09 14:47:43 FTVMilfs.19.04.09.Elexis.Monroe.Looking.For.Fun.XXX.2160p.MP4-KTR
2019-04-09 14:47:45 Doggy-Radio_TP-(PZL153)-WEB-FR-2019-MOHAWK
2019-04-09 14:47:59 Havna.S01E06.NORWEGiAN.1080p.WEB.x264-KOMPOST
2019-04-09 14:49:46 Flying_Fish_Cove-At_Moonset-(PZL158)-WEB-2019-MOHAWK
2019-04-09 14:50:49 Headhunterz_-_Takin_It_Back_(Live_Edit)-WEB-2019-MMS_INT
2019-04-09 14:51:02 Luck_Now-Enough_For_Now-(PZL157)-EP-WEB-2019-MOHAWK
2019-04-09 14:52:22 Shiny_Times-Cant_Be_Depressed-(PZL156)-WEB-2019-MOHAWK
2019-04-09 14:53:49 Slum_Summer-ABABO-(PZL151)-WEB-2019-MOHAWK
2019-04-09 14:54:59 Space_Daze-Too_Mystical-(PZL154)-WEB-2019-MOHAWK
2019-04-09 14:55:23 Shadowhunters.The.Mortal.Instruments.S03E17.German.DL.1080p.WEB.x264-BiGiNT
2019-04-09 14:56:26 State_Drugs-Takings_and_Leavings-(PZL155)-WEB-2019-MOHAWK
2019-04-09 14:56:27 Shadowhunters.The.Mortal.Instruments.S03E17.German.DL.720p.WEB.x264-BiGiNT
2019-04-09 14:57:25 The_Regrets-Endless_Desire-(PZL152)-EP-WEB-2019-MOHAWK
2019-04-09 14:57:33 Shadowhunters.The.Mortal.Instruments.S03E17.German.DL.WEB.x264-BiGiNT
2019-04-09 14:59:10 Widows.2018.TRUEFRENCH.BDRip.x264-THREESOME
2019-04-09 14:59:42 Widows.2018.TRUEFRENCH.720p.BluRay.x264-THREESOME
2019-04-09 14:59:48 Tracks.2019-04-05.German.HDTV.x264-REEDNiAR
2019-04-09 15:00:12 Widows.2018.MULTi.TRUEFRENCH.1080p.BluRay.x264-THREESOME
2019-04-09 15:00:17 Tracks.2019-04-05.German.720p.HDTV.x264-REEDNiAR
2019-04-09 15:00:52 Tracks.2019-04-05.German.1080p.HDTV.x264-REEDNiAR
2019-04-09 15:07:46 Knightfall.S02E03.720p.HDTV.x264-aAF
2019-04-09 15:10:41 Male_-_Looking_For_Female-SINGLE-WEB-2019-TEST-MULTI-SINGLE-SWINGPARTY-MMS_INT
2019-04-09 15:16:07 Deadwind.S01E06.FRENCH.HDTV.x264-AMB3R
2019-04-09 15:16:13 Deadwind.S01E07.FRENCH.HDTV.x264-AMB3R
2019-04-09 15:16:29 Shadowhunters.The.Mortal.Instruments.S03E17.FRENCH.WEB.x264-AMB3R
2019-04-09 15:18:39 Eagles-On_The_Border-(43005)-LP-FLAC-1974-BITOCUL
2019-04-09 15:21:17 Rogue.Empire.Dungeon.Crawler.RPG.v1.0.11.x64.RIP-SiMPLEX
2019-04-09 15:22:37 Rogue.Empire.Dungeon.Crawler.RPG.v1.0.11.x86.RIP-SiMPLEX
2019-04-09 15:23:38 Rogue.Empire.Dungeon.Crawler.RPG.v1.0.11.x64.RIP.INTRO.ADDON-SiMPLEX
2019-04-09 15:23:55 My_Time_at_Portia_Update_v1.0.2_NSW-VENOM
2019-04-09 15:24:36 Rogue.Empire.Dungeon.Crawler.RPG.v1.0.11.x86.RIP.INTRO.ADDON-SiMPLEX
2019-04-09 15:25:08 Paradise.Hotel.S12E17.SWEDiSH.720p.WEB.h264-NORUSH
2019-04-09 15:29:05 Skies_of_Fury_DX_Update_v1.1.1_NSW-SUXXORS
2019-04-09 15:29:08 Gekido_Kintaros_Revenge_Update_v1.0.3_NSW-SUXXORS
2019-04-09 15:33:33 Mele-The_95_Vibe-(CLB001)-WEB-2019-ENTANGLE
2019-04-09 15:38:17 Jimmy.Kimmel.2019.04.08.Robert.Downey.Jr.WEB.h264-TBS
2019-04-09 15:38:27 Jimmy.Kimmel.2019.04.08.Robert.Downey.Jr.720p.WEB.h264-TBS
2019-04-09 15:38:33 Jimmy.Fallon.2019.04.08.Hugh.Jackman.WEB.x264-TBS
2019-04-09 15:39:13 Jimmy.Fallon.2019.04.08.Hugh.Jackman.1080p.WEB.x264-TBS
2019-04-09 15:39:44 Brecht.2019.GERMAN.COMPLETE.BLURAY-SharpHD
2019-04-09 15:40:04 Seth.Meyers.2019.04.08.Kit.Harington.WEB.x264-TBS
2019-04-09 15:40:35 Seth.Meyers.2019.04.08.Kit.Harington.1080p.WEB.x264-TBS
2019-04-09 15:40:38 Seth.Meyers.2019.04.08.Kit.Harington.720p.WEB.x264-TBS
2019-04-09 15:40:52 Carson.Daly.2019.04.08.DeWanda.Wise.WEB.x264-TBS
2019-04-09 15:40:54 Far.from.Heaven.2002.INTERNAL.720p.BluRay.X264-AMIABLE
2019-04-09 15:41:08 Carson.Daly.2019.04.08.DeWanda.Wise.1080p.WEB.x264-TBS
2019-04-09 15:41:29 Carson.Daly.2019.04.08.DeWanda.Wise.720p.WEB.x264-TBS
2019-04-09 15:42:54 Zounds-The_Curse_of_Zounds_Discography_(Remastered)-WEB-2007-I_KnoW_INT
2019-04-09 15:42:58 Far.from.Heaven.2002.INTERNAL.1080p.BluRay.X264-AMIABLE
2019-04-09 15:43:25 Zounds-The_Redemption_Of_Zounds-WEB-2011-I_KnoW_INT
2019-04-09 15:45:06 Cnof-Dancing_Around-(FOKUZ19033)-EP-WEB-2019-ENSLAVE
2019-04-09 15:45:09 Busy.Tonight.2019.04.08.Mandy.Moore.720p.WEB.x264-TBS
2019-04-09 15:45:13 Busy.Tonight.2019.04.08.Mandy.Moore.WEB.x264-TBS
2019-04-09 15:45:47 Busy.Tonight.2019.04.08.Mandy.Moore.1080p.WEB.x264-TBS
2019-04-09 15:48:21 Teen.Mom.2.S09E13.1080p.WEB.x264-TBS
2019-04-09 15:49:35 Love.and.Hip.Hop.Atlanta.S08E04.1080p.WEB.x264-TBS
2019-04-09 15:53:14 Viudas.2018.SPANiSH.BDRip.x264-JODER
2019-04-09 15:53:23 Aleksi.2018.CROATiAN.720p.WEB.H264-RADiOACTiVE
2019-04-09 15:55:15 Viudas.2018.SPANiSH.MULTi.720p.BluRay.x264-JODER
2019-04-09 15:55:59 Vanderpump.Rules.S07E18.1080p.WEB.x264-TBS
2019-04-09 15:56:29 How.to.Train.Your.Dragon.The.Hidden.World.2019.INTERNAL.1080p.BluRay.X264-DEFLATE
2019-04-09 15:56:31 Viudas.2018.SPANiSH.MULTi.1080p.BluRay.x264-JODER
2019-04-09 15:57:45 Watch.What.Happens.Live.2019.03.25.Tom.Schwartz.and.Aidy.Bryant.1080p.WEB.x264-TBS
2019-04-09 15:57:53 Summer.House.S03E06.1080p.WEB.x264-TBS
2019-04-09 15:57:57 Watch.What.Happens.Live.2019.03.25.Tom.Schwartz.and.Aidy.Bryant.720p.WEB.x264-TBS
2019-04-09 15:58:05 Watch.What.Happens.Live.2019.03.25.Tom.Schwartz.and.Aidy.Bryant.WEB.x264-TBS
2019-04-09 16:01:58 Der.Trafikant.GERMAN.2018.AC3.BDRip.x264-UNiVERSUM
2019-04-09 16:02:21 Der.Trafikant.2018.GERMAN.720p.BluRay.x264-UNiVERSUM
2019-04-09 16:04:40 Black.Clover.E46.FRENCH.720p.HDTV.x264-AMB3R
2019-04-09 16:04:50 Black.Clover.E46.FRENCH.HDTV.x264-AMB3R
2019-04-09 16:04:53 Emmanuelle_Seigner-Dingue-WEB-2010-ENRiCH_iNT
2019-04-09 16:05:03 Emmanuelle_Seigner-Distant_Lover-WEB-2013-ENRiCH_iNT
2019-04-09 16:07:23 Auf.der.Suche.nach.dem.Goldenen.Kind.1986.GERMAN.AC3.DL.1080p.HDTV.x264-DUNGHiLL
2019-04-09 16:08:54 Auf.der.Suche.nach.dem.Goldenen.Kind.1986.GERMAN.AC3.DL.720p.HDTV.x264-DUNGHiLL
2019-04-09 16:09:31 Bondi.Vet.S06E01.WEB.x264-GIMINI
2019-04-09 16:10:02 Bless.Me.Ultima.2013.GERMAN.1080p.HDTV.x264-DUNGHiLL
2019-04-09 16:10:33 Bondi.Vet.S06E01.720p.WEB.x264-GIMINI
2019-04-09 16:11:04 Mistreat-Heartless_Bastards-2018-WHiTENORTH
2019-04-09 16:11:05 Bless.Me.Ultima.2013.GERMAN.720p.HDTV.x264-DUNGHiLL
2019-04-09 16:11:35 Bondi.Vet.S06E01.1080p.WEB.x264-GIMINI
2019-04-09 16:11:46 Bless.Me.Ultima.2013.GERMAN.HDTVRiP.x264-DUNGHiLL
2019-04-09 16:12:11 Catch.22.Der.boese.Trick.1970.GERMAN.1080p.HDTV.x264-DUNGHiLL
2019-04-09 16:12:38 Bondi.Vet.S08E07.WEB.H264-GIMINI
2019-04-09 16:13:18 Catch.22.Der.boese.Trick.1970.GERMAN.720p.HDTV.x264-DUNGHiLL
2019-04-09 16:13:40 Bondi.Vet.S08E07.1080p.WEB.H264-GIMINI
2019-04-09 16:14:38 Connie.und.Carla.2004.GERMAN.1080p.HDTV.x264-DUNGHiLL
2019-04-09 16:14:43 Mega.Shippers.UK.S02E07.WEB.x264-UNDERBELLY
2019-04-09 16:14:58 Caligula.1979.REMASTERED.GERMAN.720p.BluRay.x264-GOREHOUNDS
2019-04-09 16:15:45 Mega.Shippers.UK.S02E07.720p.WEB.x264-UNDERBELLY
2019-04-09 16:16:31 Connie.und.Carla.2004.GERMAN.720p.HDTV.x264-DUNGHiLL
2019-04-09 16:16:47 Mega.Shippers.UK.S02E07.1080p.WEB.x264-UNDERBELLY
2019-04-09 16:17:40 Hudson.and.Rex.S01E03.720p.HDTV.x264-aAF
2019-04-09 16:17:44 Cotton.Club.1984.GERMAN.1080p.HDTV.x264-DUNGHiLL
2019-04-09 16:19:20 Hudson.and.Rex.S01E03.HDTV.x264-aAF
2019-04-09 16:19:33 Das.Todesspiel.2010.GERMAN.DOKU.1080p.HDTV.x264-DUNGHiLL
2019-04-09 16:22:06 Das.Todesspiel.2010.GERMAN.DOKU.720p.HDTV.x264-DUNGHiLL
2019-04-09 16:23:34 Saving.Britains.Wildlife.S01E07.WEB.x264-GIMINI
2019-04-09 16:23:40 Das.Todesspiel.2010.GERMAN.DOKU.HDTVRiP.x264-DUNGHiLL
2019-04-09 16:24:04 Das.Versprechen.2001.GERMAN.DL.1080p.HDTV.x264-DUNGHiLL
2019-04-09 16:24:36 Saving.Britains.Wildlife.S01E07.720p.WEB.x264-GIMINI
2019-04-09 16:25:30 Das.Versprechen.2001.GERMAN.DL.720p.HDTV.x264-DUNGHiLL
2019-04-09 16:25:39 Saving.Britains.Wildlife.S01E07.1080p.WEB.x264-GIMINI
2019-04-09 16:26:28 Der.Sohn.der.Anderen.2012.GERMAN.SUBBED.1080p.HDTV.x264-DUNGHiLL
2019-04-09 16:27:14 Brune-Sombre_Animal-WEB-FR-2019-OND
2019-04-09 16:27:42 Der.Sohn.der.Anderen.2012.GERMAN.SUBBED.720p.HDTV.x264-DUNGHiLL
2019-04-09 16:28:05 Sukida.2005.1080p.BluRay.x264-REGRET
2019-04-09 16:28:40 Der.verrueckte.Professor.1963.GERMAN.1080p.HDTV.x264-DUNGHiLL
2019-04-09 16:29:17 Chine_Laroche-Outsider-WEB-FR-2019-OND
2019-04-09 16:30:40 Der.verrueckte.Professor.1963.GERMAN.720p.HDTV.x264-DUNGHiLL
2019-04-09 16:31:21 Constance_Verluca-Longtemps-WEB-FR-2019-OND
2019-04-09 16:33:25 Marjolaine_Karlin-Tatoo_Toota-WEB-FR-2019-OND
2019-04-09 16:33:35 Der.Trafikant.2018.GERMAN.COMPLETE.BLURAY-UNiVERSUM
2019-04-09 16:34:08 Der.weisse.Hund.von.Beverly.Hills.1982.GERMAN.1080p.HDTV.x264-DUNGHiLL
2019-04-09 16:34:13 The.Murders.S01E03.720p.HDTV.x264-aAF
2019-04-09 16:35:44 Der.weisse.Hund.von.Beverly.Hills.1982.GERMAN.720p.HDTV.x264-DUNGHiLL
2019-04-09 16:35:49 The.Murders.S01E03.HDTV.x264-aAF
2019-04-09 16:37:04 Der.weisse.Hund.von.Beverly.Hills.1982.GERMAN.HDTVRiP.x264-DUNGHiLL
2019-04-09 16:37:19 Die.geheime.Welt.unserer.Hunde.2013.GERMAN.AC3.DOKU.1080p.HDTV.x264-DUNGHiLL
2019-04-09 16:37:59 Sukida.2005.720p.BluRay.x264-REGRET
2019-04-09 16:38:11 Die.geheime.Welt.unserer.Hunde.2013.GERMAN.AC3.DOKU.720p.HDTV.x264-DUNGHiLL
2019-04-09 16:38:51 Die.geheime.Welt.unserer.Hunde.2013.GERMAN.AC3.DOKU.HDTVRiP.x264-DUNGHiLL
2019-04-09 16:39:35 Die.gespaltene.Seele.Amerikas.Amerika.unter.Trump.2018.GERMAN.DOKU.720p.HDTV.x264-DUNGHiLL
2019-04-09 16:40:13 Die.gespaltene.Seele.Amerikas.Amerika.unter.Trump.2018.GERMAN.DOKU.HDTVRiP.x264-DUNGHiLL
2019-04-09 16:41:09 Die.haarstraeubende.Reise.in.einem.verrueckten.Bus.1976.GERMAN.1080p.HDTV.x264-DUNGHiLL
2019-04-09 16:42:10 Die.haarstraeubende.Reise.in.einem.verrueckten.Bus.1976.GERMAN.720p.HDTV.x264-DUNGHiLL
2019-04-09 16:43:33 Die.Lachbombe.1954.GERMAN.1080p.HDTV.x264-DUNGHiLL
2019-04-09 16:44:43 Die.Lachbombe.1954.GERMAN.720p.HDTV.x264-DUNGHiLL
2019-04-09 16:45:36 Die.Lachbombe.1954.GERMAN.HDTVRiP.x264-DUNGHiLL
2019-04-09 16:45:58 Die.Lady.von.Shanghai.1947.GERMAN.720p.HDTV.x264-DUNGHiLL
2019-04-09 16:46:28 Shadowhunters.The.Mortal.Instruments.S03E17.FRENCH.720p.WEB.x264-CARAPiLS
2019-04-09 16:46:41 Shadowhunters.The.Mortal.Instruments.S03E17.MULTi.1080p.WEB.x264-CARAPiLS
2019-04-09 16:47:39 Ein.Trauzeuge.zum.Verlieben.2005.GERMAN.1080p.HDTV.x264-DUNGHiLL
2019-04-09 16:47:53 Knightfall.S02E03.WEBRip.x264-TBS
2019-04-09 16:47:54 Sukida.2005.COMPLETE.BLURAY-REGRET
2019-04-09 16:48:56 The.Extraordinary.Journey.of.the.Fakir.2018.MULTi.COMPLETE.BLURAY-SharpHD
2019-04-09 16:49:12 Ein.Trauzeuge.zum.Verlieben.2005.GERMAN.720p.HDTV.x264-DUNGHiLL
2019-04-09 16:50:33 Familie.Woehler.auf.Mallorca.2019.GERMAN.AC3.720p.HDTV.x264-DUNGHiLL
2019-04-09 16:51:58 HotAndMean.15.07.06.Adriana.Sephora.Remy.LaCroix.Remy.Loves.Adriana.INTERNAL.XXX.1080p.MP4-STARLET
2019-04-09 16:52:42 Familie.Woehler.auf.Mallorca.2019.GERMAN.HDTVRiP.x264-DUNGHiLL
2019-04-09 16:53:44 Franzoesische.Betten.1959.GERMAN.AC3.DL.1080p.HDTV.x264-DUNGHiLL
2019-04-09 16:55:01 Discovery.Channel.Extreme.Rides.WEB.x264-UNDERBELLY
2019-04-09 16:55:47 Franzoesische.Betten.1959.GERMAN.AC3.DL.720p.HDTV.x264-DUNGHiLL
2019-04-09 16:56:03 Discovery.Channel.Extreme.Rides.720p.WEB.x264-UNDERBELLY
2019-04-09 16:57:05 Franzoesische.Betten.1959.GERMAN.DL.HDTVRiP.x264-DUNGHiLL
2019-04-09 16:57:06 Discovery.Channel.Extreme.Rides.1080p.WEB.x264-UNDERBELLY
2019-04-09 16:57:51 Sukida.2005.iNTERNAL.BDRip.x264-REGRET
2019-04-09 16:58:04 Fuerchten.und.Lieben.1988.GERMAN.1080p.HDTV.x264-DUNGHiLL
2019-04-09 17:03:12 Worlds.Busiest.Train.Stations.S01E01.HDTV.x264-PLUTONiUM
2019-04-09 17:04:00 Ambulansen.S01E21.NORWEGiAN.720p.HDTV.x264-NORPiLT
2019-04-09 17:04:21 Fuerchten.und.Lieben.1988.GERMAN.720p.HDTV.x264-DUNGHiLL
2019-04-09 17:05:45 V8.Supercars.2019.Tyrepower.Tasmania.Supersprint.Race.Eight.Highlights.HDTV.x264-GRiP
2019-04-09 17:06:21 Fuerchten.und.Lieben.1988.GERMAN.HDTVRiP.x264-DUNGHiLL
2019-04-09 17:06:53 Knightfall.S02E03.iNTERNAL.720p.WEB.h264-BAMBOOZLE
2019-04-09 17:07:09 Cosmid.19.04.09.Emma.Ditov.On.The.Bed.XXX.1080p.MP4-KTR
2019-04-09 17:07:24 Haus.aus.Sand.und.Nebel.2003.GERMAN.AC3.1080p.HDTV.x264.iNTERNAL-DUNGHiLL
2019-04-09 17:08:06 HollyRandall.19.04.09.Kira.Noir.Body.Language.XXX.1080p.MP4-KTR
2019-04-09 17:08:46 Heimebane.S02E08.NORWEGIAN.720p.HDTV.x264-TvNORGE
2019-04-09 17:09:24 WankItNow.19.04.09.Natalia.Forrest.Tutor.My.Privates.XXX.1080p.MP4-KTR
2019-04-09 17:09:33 Haus.aus.Sand.und.Nebel.2003.GERMAN.AC3.720p.HDTV.x264.iNTERNAL-DUNGHiLL
2019-04-09 17:09:44 V8.Supercars.2019.Tyrepower.Tasmania.Supersprint.Race.Eight.Highlights.720p.HDTV.x264-GRiP
2019-04-09 17:10:43 WankItNow.19.04.09.Natalia.Forrest.Tutor.My.Privates.XXX.2160p.MP4-KTR
2019-04-09 17:11:44 AllOver30.19.04.09.Ciel.Mature.Pleasure.XXX.1080p.MP4-KTR
2019-04-09 17:12:45 AllOver30.19.04.09.Stephania.Mature.Pleasure.XXX.1080p.MP4-KTR
2019-04-09 17:12:54 Ian_Dillon-C_J_H_383-(MAM041)-WEB-2019-AFO
2019-04-09 17:13:10 Caligula.1979.REMASTERED.GERMAN.BDRiP.x264-GOREHOUNDS
2019-04-09 17:14:17 StreetSuckers.19.04.09.Jenny.Hard.REMASTERED.XXX.1080p.MP4-KTR
2019-04-09 17:15:39 Skillshare.Adobe.Audition.Cc.101.For.Podcasters-ANALYTiCS
2019-04-09 17:15:54 AllOver30.19.04.09.Ciel.Mature.Pleasure.XXX.2160p.MP4-KTR
2019-04-09 17:17:01 Ron_Flatter-Sahara__Proteus-(BB074)-WEB-2019-AFO
2019-04-09 17:17:23 AllOver30.19.04.09.Stephania.Mature.Pleasure.XXX.2160p.MP4-KTR
2019-04-09 17:21:42 Gegege.No.Kitaro.S01E50.720p.WEB.x264-URANiME
2019-04-09 17:21:58 How.to.Train.Your.Dragon.The.Hidden.World.2019.COMPLETE.BLURAY-PCH
2019-04-09 17:22:43 Gegege.No.Kitaro.S01E50.WEB.x264-URANiME
2019-04-09 17:23:45 That.Time.I.Got.Reincarnated.As.A.Slime.E24.DUBBED.1080p.WEB.x264-URANiME
2019-04-09 17:24:46 That.Time.I.Got.Reincarnated.As.A.Slime.E24.DUBBED.720p.WEB.x264-URANiME
2019-04-09 17:25:48 That.Time.I.Got.Reincarnated.As.A.Slime.E24.DUBBED.WEB.x264-URANiME
2019-04-09 17:26:19 Alejandro_R-Port_Hope_(REMIX_EDITION)-(OLDSQL555)-WEB-2019-AFO
2019-04-09 17:28:42 Cum4K.19.04.09.Adria.Rae.Insemination.Detention.XXX.1080p.MP4-KTR
2019-04-09 17:30:06 Schindlers.List.1993.MULTi.COMPLETE.UHD.BLURAY-PRECELL
2019-04-09 17:30:15 Lubed.19.04.09.Carolina.Sweets.Lubed.Interracial.XXX.1080p.MP4-KTR
2019-04-09 17:31:08 Triumvir_Foul-Urine_Of_Abomination-2019-RTB
2019-04-09 17:36:06 Snack.World.S01E03.FRENCH.720p.HDTV.x264-D4KiD
2019-04-09 17:36:41 Enertia-Sound-Geometric-(TVR2B10)-WEB-2019-AFO
2019-04-09 17:36:52 Snack.World.S01E03.FRENCH.HDTV.x264-D4KiD
2019-04-09 17:37:39 Snack.World.S01E04.FRENCH.720p.HDTV.x264-D4KiD
2019-04-09 17:38:26 Snack.World.S01E04.FRENCH.HDTV.x264-D4KiD
2019-04-09 17:38:46 BigNaturals.19.04.09.Kara.Lee.Scoring.Love.XXX.1080p.MP4-KTR
2019-04-09 17:40:37 MomsBangTeens.19.04.09.Lauren.Phillips.And.Chloe.Couture.Who.Said.You.Could.Fuck.My.BF.XXX.1080p.MP4-KTR
2019-04-09 17:44:11 Mayonaka.no.Occult.Koumuin.E01.SUBFRENCH.1080p.WEB.x264-AMB3R
2019-04-09 17:45:21 PublicAgent.19.04.09.Madison.Lush.XXX.1080p.MP4-KTR
2019-04-09 17:46:15 Der.Trafikant.2018.GERMAN.1080p.BluRay.x264-UNiVERSUM
2019-04-09 17:47:43 Cum4K.19.04.09.Adria.Rae.Insemination.Detention.XXX.2160p.MP4-KTR
2019-04-09 17:49:32 The.Real.GhostBusters.S01E01.iNTERNAL.MULTi.WEB.x264-D4KiD
2019-04-09 17:49:49 Fight.the.Horror-CODEX
2019-04-09 17:50:21 The.Real.GhostBusters.S01E02.iNTERNAL.MULTi.WEB.x264-D4KiD
2019-04-09 17:51:04 Lubed.19.04.09.Carolina.Sweets.Lubed.Interracial.XXX.2160p.MP4-KTR
2019-04-09 17:51:08 The.Real.GhostBusters.S01E03.iNTERNAL.MULTi.WEB.x264-D4KiD
2019-04-09 17:51:55 The.Real.GhostBusters.S01E04.iNTERNAL.MULTi.WEB.x264-D4KiD
2019-04-09 17:52:42 The.Real.GhostBusters.S01E05.iNTERNAL.MULTi.WEB.x264-D4KiD
2019-04-09 17:53:15 Valentine.In.The.Vineyard.2019.1080p.HDTV.x264-W4F
2019-04-09 17:53:28 The.Real.GhostBusters.S01E06.iNTERNAL.MULTi.WEB.x264-D4KiD
2019-04-09 17:53:31 Valentine.In.The.Vineyard.2019.720p.HDTV.x264-W4F
2019-04-09 17:53:42 Valentine.In.The.Vineyard.2019.HDTV.x264-W4F
2019-04-09 17:54:15 The.Real.GhostBusters.S01E07.iNTERNAL.MULTi.WEB.x264-D4KiD
2019-04-09 17:55:03 The.Real.GhostBusters.S01E08.iNTERNAL.MULTi.WEB.x264-D4KiD
2019-04-09 17:56:27 Christopher.Kimballs.Milk.Street.Television.S02E22.Singapore.Satay.Soup.and.Sling.720p.HDTV.x264-W4F
2019-04-09 17:56:28 The.Real.GhostBusters.S01E09.iNTERNAL.MULTi.WEB.x264-D4KiD
2019-04-09 17:56:36 Christopher.Kimballs.Milk.Street.Television.S02E22.Singapore.Satay.Soup.and.Sling.HDTV.x264-W4F
2019-04-09 17:56:53 Christopher.Kimballs.Milk.Street.Television.S02E23.West.African.Weeknight.Supper.720p.HDTV.x264-W4F
2019-04-09 17:57:03 Christopher.Kimballs.Milk.Street.Television.S02E23.West.African.Weeknight.Supper.HDTV.x264-W4F
2019-04-09 17:57:14 The.Real.GhostBusters.S01E10.iNTERNAL.MULTi.WEB.x264-D4KiD
2019-04-09 17:58:01 The.Real.GhostBusters.S01E11.iNTERNAL.MULTi.WEB.x264-D4KiD
2019-04-09 17:58:41 Oxford.University.Press.Groovin.High.The.Life.of.Dizzy.Gillespie.1999.RETAiL.eBook-VENTOLiN
2019-04-09 17:58:48 The.Real.GhostBusters.S01E12.iNTERNAL.MULTi.WEB.x264-D4KiD
2019-04-09 17:59:35 The.Real.GhostBusters.S01E13.FiNAL.iNTERNAL.MULTi.WEB.x264-D4KiD
2019-04-09 18:01:52 Omnibus.Press.Freddie.Mercury.His.Life.in.His.Own.Words.2011.RETAiL.ePub.eBook-VENTOLiN
2019-04-09 18:06:00 Dangerous_Driving-HOODLUM
2019-04-09 18:09:56 Dev.Publishers.Sonic.Liturgy.Ritual.and.Music.in.Hindu.Tradition.2014.RETAiL.eBook-VENTOLiN
2019-04-09 18:13:15 Patrick.Moulou.Complete.Django.The.Ultimate.Django.Book.2007.RETAiL.eBook-VENTOLiN
2019-04-09 18:13:54 Flea.Market.Flip.S03E13.Seeing.Orange.WEB.x264-GIMINI
2019-04-09 18:14:57 Flea.Market.Flip.S03E13.Seeing.Orange.720p.WEB.x264-GIMINI
2019-04-09 18:15:59 Flea.Market.Flip.S03E13.Seeing.Orange.1080p.WEB.x264-GIMINI
2019-04-09 18:16:03 Elena.Mannes.The.Power.of.Music.Pioneering.Discoveries.in.the.New.Science.of.Song.2013.RETAiL.ePub.eBook-VENTOLiN
2019-04-09 18:17:01 Flea.Market.Flip.S03E14.Full.Contact.Flipping.WEB.x264-GIMINI
2019-04-09 18:18:03 Flea.Market.Flip.S03E14.Full.Contact.Flipping.720p.WEB.x264-GIMINI
2019-04-09 18:19:05 Flea.Market.Flip.S03E14.Full.Contact.Flipping.1080p.WEB.x264-GIMINI
2019-04-09 18:20:17 Sunless.Skies.Wayfarer-CODEX
2019-04-09 18:20:43 Hochzeitsreise.zu.viert.2010.GERMAN.1080p.HDTV.x264-DUNGHiLL
2019-04-09 18:23:25 Only-Secretaries.com.17.05.12.Becky.X.XXX.IMAGESET-IEVA
2019-04-09 18:23:40 Hochzeitsreise.zu.viert.2010.GERMAN.720p.HDTV.x264-DUNGHiLL
2019-04-09 18:24:02 Only-Secretaries.com.17.05.13.Jess.XXX.IMAGESET-IEVA
2019-04-09 18:24:09 Paradise.Hotel.S12E17.iNTERNAL.SWEDiSH.720p.WEB.H264-EXECUTION
2019-04-09 18:24:39 Paradise.Hotel.S12E17.SWEDiSH.1080p.WEB.H264-EXECUTION
2019-04-09 18:24:40 Only-Secretaries.com.17.05.14.Brook.A.XXX.IMAGESET-IEVA
2019-04-09 18:24:46 Hochzeitsreise.zu.viert.2010.GERMAN.HDTVRiP.x264-DUNGHiLL
2019-04-09 18:25:06 Five_Horse_Johnson-Jake_Leg_Boogie-CD-FLAC-2017-6DM
2019-04-09 18:25:13 Hotelgefluester.1971.GERMAN.1080p.HDTV.x264-DUNGHiLL
2019-04-09 18:25:18 Only-Secretaries.com.17.05.15.Emma.Jones.XXX.IMAGESET-IEVA
2019-04-09 18:26:01 Only-Secretaries.com.17.05.16.Gracie.Adams.XXX.IMAGESET-IEVA
2019-04-09 18:26:38 Only-Secretaries.com.17.05.17.Frankie.B.XXX.IMAGESET-IEVA
2019-04-09 18:27:00 Hotelgefluester.1971.GERMAN.720p.HDTV.x264-DUNGHiLL
2019-04-09 18:27:17 Only-Secretaries.com.17.05.18.Victoria.S.XXX.IMAGESET-IEVA
2019-04-09 18:27:56 Only-Secretaries.com.17.05.19.Laura.H.XXX.IMAGESET-IEVA
2019-04-09 18:28:36 Only-Secretaries.com.17.05.20.Stacey.P.XXX.IMAGESET-IEVA
2019-04-09 18:28:42 Hotelgefluester.1971.GERMAN.HDTVRiP.x264-DUNGHiLL
2019-04-09 18:29:13 Only-Secretaries.com.17.05.21.Maddie.M.XXX.IMAGESET-IEVA
2019-04-09 18:29:35 In.and.Out.Rosa.wie.die.Liebe.1996.GERMAN.1080p.HDTV.x264-DUNGHiLL
2019-04-09 18:29:52 Only-Secretaries.com.17.05.22.Jo.E.XXX.IMAGESET-IEVA
2019-04-09 18:30:16 Ran.eSports.Professional.Gaming.Magazine.2019.03.21.German.1080p.HDTV.x264-WiNMAU
2019-04-09 18:30:29 Only-Secretaries.com.17.05.23.Deannah.XXX.IMAGESET-IEVA
2019-04-09 18:30:38 Paradise.Hotel.S11E18.NORWEGiAN.720p.WEB.H264-HENRETTELSE
2019-04-09 18:30:57 Paradise.Hotel.S11E18.NORWEGiAN.1080p.WEB.H264-HENRETTELSE
2019-04-09 18:31:02 Zvezde.Plesejo.S03E05.SI.HDTV.x264-RADiOACTiVE
2019-04-09 18:31:03 Zvezde.Plesejo.S03E05.SI.720p.HDTV.x264-RADiOACTiVE
2019-04-09 18:31:11 Only-Secretaries.com.17.05.24.Saffron.XXX.IMAGESET-IEVA
2019-04-09 18:31:23 In.and.Out.Rosa.wie.die.Liebe.1996.GERMAN.720p.HDTV.x264-DUNGHiLL
2019-04-09 18:31:49 Only-Secretaries.com.17.05.25.Felicity.Hill.XXX.IMAGESET-IEVA
2019-04-09 18:32:28 Only-Secretaries.com.17.05.27.Kay.XXX.IMAGESET-IEVA
2019-04-09 18:33:03 Ran.eSports.Professional.Gaming.Magazine.2019.03.21.German.720p.HDTV.x264-WiNMAU
2019-04-09 18:33:06 Only-Secretaries.com.17.05.28.Holly.Gibbons.XXX.IMAGESET-IEVA
2019-04-09 18:33:13 Intimacy.2001.GERMAN.DL.1080p.HDTV.x264-DUNGHiLL
2019-04-09 18:33:14 The_Brought_Low-Right_On_Time-CD-2006-6DM
2019-04-09 18:33:43 Only-Secretaries.com.17.05.29.Maria.XXX.IMAGESET-IEVA
2019-04-09 18:34:21 Only-Secretaries.com.17.05.30.Lola.A.XXX.IMAGESET-IEVA
2019-04-09 18:34:47 VA_-_Jump_Step_2019-(5977)-WEB-2019-ZzZz
2019-04-09 18:34:52 Ran.eSports.Professional.Gaming.Magazine.2019.03.21.German.HDTVRip.x264-WiNMAU
2019-04-09 18:35:03 Only-Secretaries.com.17.06.01.Holly.Jade.XXX.IMAGESET-IEVA
2019-04-09 18:35:40 Only-Secretaries.com.17.06.02.Jenny.James.XXX.IMAGESET-IEVA
2019-04-09 18:35:44 Intimacy.2001.GERMAN.DL.720p.HDTV.x264-DUNGHiLL
2019-04-09 18:36:18 Only-Secretaries.com.17.06.03.Stephanie.E.XXX.IMAGESET-IEVA
2019-04-09 18:36:56 Only-Secretaries.com.17.06.04.Natasha.Anastasia.XXX.IMAGESET-IEVA
2019-04-09 18:37:35 Only-Secretaries.com.17.06.05.Samantha.Wales.XXX.IMAGESET-IEVA
2019-04-09 18:38:12 Only-Secretaries.com.17.06.06.Tianna.XXX.IMAGESET-IEVA
2019-04-09 18:38:18 Jack.rechnet.ab.1971.GERMAN.AC3.DL.1080p.HDTV.x264-DUNGHiLL
2019-04-09 18:38:50 Only-Secretaries.com.17.06.08.Zofeya.XXX.IMAGESET-IEVA
2019-04-09 18:38:51 Ran.eSports.Professional.Gaming.Magazine.2019.03.28.German.1080p.HDTV.x264-WiNMAU
2019-04-09 18:38:56 Chujo_-_Love_Illusion-WEB-2019-KNOWN
2019-04-09 18:39:27 Only-Secretaries.com.17.06.09.Yasmin.Grayce.XXX.IMAGESET-IEVA
2019-04-09 18:40:05 Only-Secretaries.com.17.06.10.Cayla.Lyons.XXX.IMAGESET-IEVA
2019-04-09 18:40:20 Jack.rechnet.ab.1971.GERMAN.AC3.DL.720p.HDTV.x264-DUNGHiLL
2019-04-09 18:40:20 The_Brought_Low-Right_On_Time-CD-FLAC-2006-6DM
2019-04-09 18:40:42 Only-Secretaries.com.17.06.11.Petra.V.XXX.IMAGESET-IEVA
2019-04-09 18:41:39 Only-Secretaries.com.17.06.12.Amy.Rose.XXX.IMAGESET-IEVA
2019-04-09 18:41:44 Ran.eSports.Professional.Gaming.Magazine.2019.03.28.German.720p.HDTV.x264-WiNMAU
2019-04-09 18:42:16 Jack.rechnet.ab.1971.GERMAN.DL.HDTVRiP.x264-DUNGHiLL
2019-04-09 18:42:16 Only-Secretaries.com.17.06.13.Erica.XXX.IMAGESET-IEVA
2019-04-09 18:42:55 Only-Secretaries.com.17.06.15.Tess.XXX.IMAGESET-IEVA
2019-04-09 18:42:59 Kalt.ist.der.Abendhauch.2000.GERMAN.DL.1080p.HDTV.x264-DUNGHiLL
2019-04-09 18:43:32 Only-Secretaries.com.17.06.16.Stephanie.Bonham.Carter.XXX.IMAGESET-IEVA
2019-04-09 18:43:32 The_Brought_Low-Third_Record-CD-2010-6DM
2019-04-09 18:43:39 EKG_-_Kids_These_Days-WEB-2019-KNOWN
2019-04-09 18:43:46 101.Dalmatian.Street.S01E05A.FRENCH.720p.HDTV.x264-D4KiD
2019-04-09 18:44:09 Only-Secretaries.com.17.06.17.Nicky.Phillips.XXX.IMAGESET-IEVA
2019-04-09 18:44:33 Ran.eSports.Professional.Gaming.Magazine.2019.03.28.German.HDTVRip.x264-WiNMAU
2019-04-09 18:44:46 101.Dalmatian.Street.S01E05A.FRENCH.HDTV.x264-D4KiD
2019-04-09 18:44:46 Only-Secretaries.com.17.06.18.Kayla.XXX.IMAGESET-IEVA
2019-04-09 18:45:08 Kalt.ist.der.Abendhauch.2000.GERMAN.DL.720p.HDTV.x264.iNTERNAL-DUNGHiLL
2019-04-09 18:45:22 Only-Secretaries.com.17.06.20.Summer.XXX.IMAGESET-IEVA
2019-04-09 18:45:59 Only-Secretaries.com.17.06.21.Jemma.Louise.XXX.IMAGESET-IEVA
2019-04-09 18:46:22 Outback.Opal.Hunters.S02E04.WEB.x264-UNDERBELLY
2019-04-09 18:46:36 Only-Secretaries.com.17.06.22.Lucie.Kent.XXX.IMAGESET-IEVA
2019-04-09 18:47:12 Only-Secretaries.com.17.06.23.Lauren.The.Stylist.and.Kara.Carter.XXX.IMAGESET-IEVA
2019-04-09 18:47:24 Outback.Opal.Hunters.S02E04.720p.WEB.x264-UNDERBELLY
2019-04-09 18:47:50 Only-Secretaries.com.17.06.25.Gina.B.XXX.IMAGESET-IEVA
2019-04-09 18:48:15 Josh_Wink-Profound_Sounds_Live_From_Effex_Nightclub_Part_3-(New_Mexico)-SAT-01-18-2019-U235
2019-04-09 18:48:18 The.Middle.S09E22.Der.lange.Weg.zum.Nichts.German.HDTV.x264-ITG
2019-04-09 18:48:25 Superlover_-_Jack-WEB-2019-KNOWN
2019-04-09 18:48:28 Outback.Opal.Hunters.S02E04.1080p.WEB.x264-UNDERBELLY
2019-04-09 18:48:29 Only-Secretaries.com.17.06.26.Kamila.A.XXX.IMAGESET-IEVA
2019-04-09 18:48:35 Ran.eSports.Professional.Gaming.Magazine.2019.04.04.German.1080p.HDTV.x264-WiNMAU
2019-04-09 18:49:04 Only-Secretaries.com.17.06.27.Layla.May.XXX.IMAGESET-IEVA
2019-04-09 18:49:11 Kiriku.und.die.Maenner.und.Frauen.2012.GERMAN.1080p.HDTV.x264-DUNGHiLL
2019-04-09 18:49:29 Outback.Opal.Hunters.S02E05.WEB.x264-UNDERBELLY
2019-04-09 18:49:40 Only-Secretaries.com.17.06.28.Jay.XXX.IMAGESET-IEVA
2019-04-09 18:50:04 The.Middle.S09E22.Der.lange.Weg.zum.Nichts.GERMAN.HDTV.720p.x264-ZZGtv
2019-04-09 18:50:18 Only-Secretaries.com.17.06.29.Tammy.XXX.IMAGESET-IEVA
2019-04-09 18:50:24 Kiriku.und.die.Maenner.und.Frauen.2012.GERMAN.720p.HDTV.x264-DUNGHiLL
2019-04-09 18:50:33 Outback.Opal.Hunters.S02E05.720p.WEB.x264-UNDERBELLY
2019-04-09 18:50:50 Kiriku.und.die.Maenner.und.Frauen.2012.GERMAN.HDTVRiP.x264-DUNGHiLL
2019-04-09 18:50:53 Only-Secretaries.com.17.06.30.Tillie.XXX.IMAGESET-IEVA
2019-04-09 18:51:12 Liebe.lieber.Italienisch.2005.GERMAN.AC3.1080p.HDTV.x264-DUNGHiLL
2019-04-09 18:51:27 Ran.eSports.Professional.Gaming.Magazine.2019.04.04.German.720p.HDTV.x264-WiNMAU
2019-04-09 18:51:34 Outback.Opal.Hunters.S02E05.1080p.WEB.x264-UNDERBELLY
2019-04-09 18:52:52 Liebe.lieber.Italienisch.2005.GERMAN.AC3.720p.HDTV.x264-DUNGHiLL
2019-04-09 18:53:46 The_Brought_Low-Third_Record-CD-FLAC-2010-6DM
2019-04-09 18:54:13 Ran.eSports.Professional.Gaming.Magazine.2019.04.04.German.HDTVRip.x264-WiNMAU
2019-04-09 18:55:54 Liebe.lieber.Italienisch.2005.GERMAN.HDTVRiP.x264-DUNGHiLL
2019-04-09 18:56:02 VA_-_Duong_Xua_Qua_Day-(505903_3417021)-WEB-2019-ZzZz
2019-04-09 18:57:54 Machs.nochmal.Dad.1986.GERMAN.1080p.HDTV.x264-DUNGHiLL
2019-04-09 19:00:29 Machs.nochmal.Dad.1986.GERMAN.720p.HDTV.x264-DUNGHiLL
2019-04-09 19:02:36 Mammut.2009.GERMAN.AC3.1080p.HDTV.x264-DUNGHiLL
2019-04-09 19:03:30 Mike_Vale_-_Music_Is_The_Answer-WEB-2019-KNOWN
2019-04-09 19:03:41 Outback.Opal.Hunters.S02E06.WEB.x264-UNDERBELLY
2019-04-09 19:04:43 Outback.Opal.Hunters.S02E06.720p.WEB.x264-UNDERBELLY
2019-04-09 19:05:46 Outback.Opal.Hunters.S02E06.1080p.WEB.x264-UNDERBELLY
2019-04-09 19:05:57 Limitless_feat_Pauline_Herr_-_Ether_(Remixes)-(EDM_190042)-WEB-2019-ZzZz
2019-04-09 19:06:02 Mammut.2009.GERMAN.AC3.720p.HDTV.x264-DUNGHiLL
2019-04-09 19:08:08 Monika.Gruber.und.Viktor.Gernot.Kuess.die.Hand.2017.GERMAN.AC3.1080p.HDTV.x264-DUNGHiLL
2019-04-09 19:08:27 LinkedIn.Learning.Windows.Server.2019.High.Availability-SHEPHERDS
2019-04-09 19:12:07 Monika.Gruber.und.Viktor.Gernot.Kuess.die.Hand.2017.GERMAN.AC3.720p.HDTV.x264-DUNGHiLL
2019-04-09 19:14:36 Monika.Gruber.und.Viktor.Gernot.Kuess.die.Hand.2017.GERMAN.HDTVRiP.x264-DUNGHiLL
2019-04-09 19:15:22 Controlled.Bewahren.Sie.Ruhe.2018.German.720p.BluRay.x264-SPiCY
2019-04-09 19:15:43 Controlled.Bewahren.Sie.Ruhe.German.2018.AC3.BDRip.x264-SPiCY
2019-04-09 19:16:04 Controlled.Bewahren.Sie.Ruhe.2018.German.DL.1080p.BluRay.x264-SPiCY
2019-04-09 19:16:04 Muriels.Hochzeit.1994.GERMAN.1080p.HDTV.x264-DUNGHiLL
2019-04-09 19:16:48 Fury_Weekend_and_Josh_Money_-_Savior-(FXT_480)-WEB-2019-ZzZz
2019-04-09 19:17:42 Muriels.Hochzeit.1994.GERMAN.720p.HDTV.x264-DUNGHiLL
2019-04-09 19:19:27 Operation.Corned.Beef.1991.GERMAN.1080p.HDTV.x264-DUNGHiLL
2019-04-09 19:20:14 Agit-Blink-(IR232)-SINGLE-WEB-2019-KLIN
2019-04-09 19:21:23 Operation.Corned.Beef.1991.GERMAN.720p.HDTV.x264-DUNGHiLL
2019-04-09 19:21:37 Black.Octopus.Sunset.Tech.House.WAV-MASCHiNE
2019-04-09 19:23:09 Operation.Corned.Beef.1991.GERMAN.HDTVRiP.x264-DUNGHiLL
2019-04-09 19:23:34 Quietsch.Quietsch.Wer.bohrt.denn.da.nach.Oel.1963.GERMAN.1080p.HDTV.x264-DUNGHiLL
2019-04-09 19:23:38 Cenott_and_Aleexs_-_No_Most-(DPB_426)-SINGLE-WEB-2019-ZzZz
2019-04-09 19:24:41 Pink_Cat_Empire-Modus-(275693)-SINGLE-WEB-2019-KLIN
2019-04-09 19:25:50 Quietsch.Quietsch.Wer.bohrt.denn.da.nach.Oel.1963.GERMAN.720p.HDTV.x264-DUNGHiLL
2019-04-09 19:27:43 Rache.aus.dem.Reich.der.Toten.1981.GERMAN.1080p.HDTV.x264-DUNGHiLL
2019-04-09 19:29:09 Rache.aus.dem.Reich.der.Toten.1981.GERMAN.720p.HDTV.x264-DUNGHiLL
2019-04-09 19:29:31 DJ_Richardfloor-Bass_Hall_In_Da_House-(278524)-WEB-2019-KLIN
2019-04-09 19:31:03 Solo.fuer.zwei.1984.GERMAN.DL.1080p.HDTV.x264-DUNGHiLL
2019-04-09 19:31:13 XYplorer.v19.90.0000.Incl.Keygen-AMPED
2019-04-09 19:32:59 Autodesk_AutoCAD_LT_v2020_X64_GERMAN-CYGiSO
2019-04-09 19:33:13 Solo.fuer.zwei.1984.GERMAN.DL.720p.HDTV.x264-DUNGHiLL
2019-04-09 19:33:50 Paul_Norval_-_Everytime_You_Touch_Me-(DNZ_350)-SINGLE-WEB-2019-ZzZz
2019-04-09 19:34:20 The.Real.GhostBusters.S02E01.iNTERNAL.MULTi.WEB.x264-D4KiD
2019-04-09 19:34:50 Susan.verzweifelt.gesucht.1985.GERMAN.1080p.HDTV.x264-DUNGHiLL
2019-04-09 19:35:07 The.Real.GhostBusters.S02E02.iNTERNAL.MULTi.WEB.x264-D4KiD
2019-04-09 19:35:54 The.Real.GhostBusters.S02E03.iNTERNAL.MULTi.WEB.x264-D4KiD
2019-04-09 19:36:04 CYA_-_Eternity-(CN003)-SINGLE-WEB-2019-QMI
2019-04-09 19:36:12 Soundiron.Tbilat.Drum.KONTAKT-MASCHiNE
2019-04-09 19:36:27 Susan.verzweifelt.gesucht.1985.GERMAN.720p.HDTV.x264-DUNGHiLL
2019-04-09 19:36:41 The.Real.GhostBusters.S02E04.iNTERNAL.MULTi.WEB.x264-D4KiD
2019-04-09 19:37:28 The.Real.GhostBusters.S02E05.iNTERNAL.MULTi.WEB.x264-D4KiD
2019-04-09 19:37:57 Tom.und.Jerry.Piraten.auf.Schatzsuche.2006.GERMAN.1080p.HDTV.x264-DUNGHiLL
2019-04-09 19:38:14 The.Real.GhostBusters.S02E06.iNTERNAL.MULTi.WEB.x264-D4KiD
2019-04-09 19:38:45 Onofrio_Musciacchio-Intense_EP-(MSR0036)-WEB-2019-KLIN
2019-04-09 19:39:01 The.Real.GhostBusters.S02E07.iNTERNAL.MULTi.WEB.x264-D4KiD
2019-04-09 19:39:39 Tom.und.Jerry.Piraten.auf.Schatzsuche.2006.GERMAN.720p.HDTV.x264-DUNGHiLL
2019-04-09 19:39:47 The.Real.GhostBusters.S02E08.iNTERNAL.MULTi.WEB.x264-D4KiD
2019-04-09 19:40:34 The.Real.GhostBusters.S02E09.iNTERNAL.MULTi.WEB.x264-D4KiD
2019-04-09 19:40:36 Autodesk_AutoCAD_Architecture_v2020_X64_GERMAN-CYGiSO
2019-04-09 19:41:20 The.Real.GhostBusters.S02E10.iNTERNAL.MULTi.WEB.x264-D4KiD
2019-04-09 19:42:07 The.Real.GhostBusters.S02E11.iNTERNAL.MULTi.WEB.x264-D4KiD
2019-04-09 19:42:34 Tom.und.Jerry.Piraten.auf.Schatzsuche.2006.GERMAN.HDTVRiP.x264-DUNGHiLL
2019-04-09 19:42:38 David_Morrati-All_Night_Long-(DBR1047)-SINGLE-WEB-2019-KLIN
2019-04-09 19:42:44 WWE.Hidden.Gems.For.Petes.Sake.2017.06.08.720p.WEB.h264-HONOR
2019-04-09 19:42:54 The.Real.GhostBusters.S02E12.iNTERNAL.MULTi.WEB.x264-D4KiD
2019-04-09 19:43:21 Va.savoir.Keiner.weiss.mehr.2001.GERMAN.1080p.HDTV.x264-DUNGHiLL
2019-04-09 19:43:43 The.Real.GhostBusters.S02E13.iNTERNAL.MULTi.WEB.x264-D4KiD
2019-04-09 19:44:28 The.Real.GhostBusters.S02E14.iNTERNAL.MULTi.WEB.x264-D4KiD
2019-04-09 19:45:15 The.Real.GhostBusters.S02E15.iNTERNAL.MULTi.WEB.x264-D4KiD
2019-04-09 19:46:02 The.Real.GhostBusters.S02E16.iNTERNAL.MULTi.WEB.x264-D4KiD
2019-04-09 19:46:24 Va.savoir.Keiner.weiss.mehr.2001.GERMAN.720p.HDTV.x264-DUNGHiLL
2019-04-09 19:46:29 KAT_-_Miami_Tribute-(HCL_018)-SINGLE-WEB-2019-ZzZz
2019-04-09 19:46:49 Autodesk_AutoCAD_Electrical_v2020_X64_GERMAN-CYGiSO
2019-04-09 19:46:49 The.Real.GhostBusters.S02E17.iNTERNAL.MULTi.WEB.x264-D4KiD
2019-04-09 19:47:08 Silk_Drizzle-Free_Oj_Simpson-(37576)-WEB-2019-KLIN
2019-04-09 19:47:12 WWE.Hidden.Gems.The.Fight.For.Glory.2016.10.30.720p.WEB.h264-HONOR
2019-04-09 19:47:36 The.Real.GhostBusters.S02E18.iNTERNAL.MULTi.WEB.x264-D4KiD
2019-04-09 19:48:16 Va.savoir.Keiner.weiss.mehr.2001.GERMAN.HDTVRiP.x264-DUNGHiLL
2019-04-09 19:48:55 Von.Erholung.war.nie.die.Rede.2017.GERMAN.1080p.HDTV.x264-DUNGHiLL
2019-04-09 19:50:48 WWE.Hidden.Gems.The.Young.And.The.Hungry.2013.05.23.720p.WEB.h264-HONOR
2019-04-09 19:51:10 Von.Erholung.war.nie.die.Rede.2017.GERMAN.720p.HDTV.x264-DUNGHiLL
2019-04-09 19:51:47 Autodesk_AutoCAD_Map_3D_v2020_X64_GERMAN-CYGiSO
2019-04-09 19:52:41 Von.Erholung.war.nie.die.Rede.2017.GERMAN.HDTVRiP.x264-DUNGHiLL
2019-04-09 19:52:49 One-Punch.Man.Second.Season.E01.SUBFRENCH.1080p.WEB.x264-AMB3R
2019-04-09 19:53:15 Kid_Bunka-Magensaft-(VDI994)-WEB-2019-KLIN
2019-04-09 19:53:24 Wenn.Lucy.springt.1996.GERMAN.1080p.HDTV.x264-DUNGHiLL
2019-04-09 19:53:32 Wenn.Lucy.springt.1996.GERMAN.720p.HDTV.x264-DUNGHiLL
2019-04-09 19:55:46 WWE.Hidden.Gems.Threes.A.Crowd.2016.10.30.720p.WEB.h264-HONOR
2019-04-09 19:56:42 Autodesk_AutoCAD_Mechanical_v2020_X64_GERMAN-CYGiSO
2019-04-09 19:58:29 Verbo_Y_Vida-Tu_Amor_Por_Mi-WEB-2006-KLIN
2019-04-09 19:59:38 Abels.Tarn.S04E07.NORWEGiAN.720p.WEB.X264-HENRETTELSE
2019-04-09 20:00:05 Wasser.E01.Die.Quelle.des.Lebens.GERMAN.DOKU.HDTVRiP.x264-EUROPIPE
2019-04-09 20:00:22 Steven_Redant_feat_Chipper_-_Sunshine_On_My_Shoulders_(Remixes)-(GR_432)-WEB-2019-ZzZz
2019-04-09 20:01:07 Wasser.E01.Die.Quelle.des.Lebens.GERMAN.DOKU.720p.HDTV.x264-EUROPIPE
2019-04-09 20:01:19 Phoenix.Wright.Ace.Attorney.Trilogy-CODEX
2019-04-09 20:01:44 Widows.2018.MULTI.COMPLETE.BLURAY-BD4U
2019-04-09 20:02:16 Lyxfallan.S26E12.SWEDiSH.720p.WEB.H264-EXECUTION
2019-04-09 20:02:31 Ullared.S10E13.SWEDiSH.720p.WEB.X264-EXECUTION
2019-04-09 20:02:36 Vinnarskallar.S01E05.SWEDiSH.720p.WEB.X264-EXECUTION
2019-04-09 20:02:51 Sommerhytta.S03E18.NORWEGiAN.720p.HDTV.x264-NORPiLT
2019-04-09 20:03:00 Cantina_Calavera-A_Tu_Lado__Sin_Parar-(SPR034)-WEB-2019-KLIN
2019-04-09 20:03:08 Lyxfallan.S26E12.SWEDiSH.1080p.WEB.H264-EXECUTION
2019-04-09 20:03:28 Greys.Anatomy.S15E05.GERMAN.DL.DUBBED.1080p.WEB.h264-VoDTv
2019-04-09 20:03:35 Autodesk_AutoCAD_MEP_v2020_X64_GERMAN-CYGiSO
2019-04-09 20:03:42 Ullared.S10E13.SWEDiSH.1080p.WEB.X264-EXECUTION
2019-04-09 20:04:27 Performance.Samples.River.Piano.KONTAKT-MASCHiNE
2019-04-09 20:04:41 Vinnarskallar.S01E05.SWEDiSH.1080p.WEB.X264-EXECUTION
2019-04-09 20:04:51 Greys.Anatomy.S15E05.GERMAN.DUBBED.720p.WEB.h264-idTV
2019-04-09 20:06:17 Greys.Anatomy.S15E05.GERMAN.DUBBED.WEBRiP.x264-idTV
2019-04-09 20:07:19 Ritt3R-California-(GMR408)-SINGLE-WEB-2019-KLIN
2019-04-09 20:09:47 Autodesk_AutoCAD_Plant_3D_v2020_X64_GERMAN-CYGiSO
2019-04-09 20:10:49 Marcocram_DJ_feat_Sara_-_Dance_In_The_Night-(406179_8238897)-SINGLE-WEB-2019-ZzZz
2019-04-09 20:11:10 Setup_-Diphylleia-(CDRC162)-SINGLE-WEB-2019-KLIN
2019-04-09 20:12:42 Dark.Places-PLAZA
2019-04-09 20:14:14 Autodesk_AutoCAD_Raster_Design_v2020_X64_GERMAN-CYGiSO
2019-04-09 20:15:32 Autodesk_AutoCAD_v2020_X64_GERMAN-CYGiSO
2019-04-09 20:16:35 Fussball.1.Bundesliga.2018-2019.28.Spieltag.FC.Bayern.Muenchen.vs.Borussia.Dortmund.German.1080p.HDTV.x264-iSEC
2019-04-09 20:17:16 Touch.Loops.Expansive.Electronica.WAV-MASCHiNE
2019-04-09 20:18:35 Freaky_Djs_and_Sixth_Sense_-_Sunkiss-(VR_066A)-SINGLE-WEB-2019-ZzZz
2019-04-09 20:20:08 Autodesk_Inventor_Pro_v2020_X64_GERMAN-CYGiSO
2019-04-09 20:20:49 Masterchef.S05E42.DANiSH.720p.HDTV.x264-RCDiVX
2019-04-09 20:21:09 Wiwek-Cycles-WEB-2019-TosK
2019-04-09 20:22:47 The.Unexplainers.S01E03.WEB.h264-LiGATE
2019-04-09 20:23:01 SISTA_SONY_and_JAHSIK-Cant_Dead_Poor-SINGLE-WEB-FR-2019-JAH
2019-04-09 20:23:15 Seattle.Firefighters.Die.jungen.Helden.S02E03.GERMAN.DUBBED.720p.WEB.h264-idTV
2019-04-09 20:23:42 Oblik-Lvan-WEB-FR-2018-AZF
2019-04-09 20:23:48 The.Unexplainers.S01E03.720p.WEBRip.x264-LiGATE
2019-04-09 20:23:51 Alma--Live_at_Reeperbahn_Festival_Hamburg-DVBS-09-19-2018-OMA
2019-04-09 20:24:00 Seattle.Firefighters.Die.jungen.Helden.S02E03.GERMAN.DUBBED.WEBRiP.x264-idTV
2019-04-09 20:24:33 The.Repair.Shop.S04E06.720p.WEBRip.x264-LiGATE
2019-04-09 20:25:37 Father_John_Misty--Live_at_Les_Docks_Lausanne-DVBS-11-18-2018-OMA
2019-04-09 20:25:53 Masterchef.S05E42.DANiSH.HDTV.x264-RCDiVX
2019-04-09 20:26:09 Gabby_Young_and_Other_Animals--Live_at_Reeperbahn_Festival_Hamburg-DVBS-09-22-2011-OMA
2019-04-09 20:26:23 Seattle.Firefighters.Die.jungen.Helden.S02E03.GERMAN.DL.DUBBED.1080p.WEB.h264-VoDTv
2019-04-09 20:26:27 Jade_Bird--Live_at_Reeperbahn_Festival_Hamburg-DVBS-09-21-2017-OMA
2019-04-09 20:27:15 Scientific.Toolworks.Understand.v5.1.984.X64.Incl.Keygen-AMPED
2019-04-09 20:27:20 The.Repair.Shop.S04E06.WEB.h264-LiGATE
2019-04-09 20:27:27 The.Real.GhostBusters.S02E19.iNTERNAL.MULTi.WEB.x264-D4KiD
2019-04-09 20:28:14 The.Real.GhostBusters.S02E20.iNTERNAL.MULTi.WEB.x264-D4KiD
2019-04-09 20:28:30 Morcheeba--Live_in_Munich-DVBS-05-10-2018-OMA
2019-04-09 20:29:00 The.Real.GhostBusters.S02E21.iNTERNAL.MULTi.WEB.x264-D4KiD
2019-04-09 20:29:11 Macklemore--Live_at_Gampel_Open_Air-DVBS-08-16-2018-OMA
2019-04-09 20:29:12 Scientific.Toolworks.Understand.v5.1.984.MACOSX-AMPED
2019-04-09 20:29:37 Loisa--Live_at_Hanseklub_Hamburg-DVBS-05-13-2013-OMA
2019-04-09 20:29:47 The.Real.GhostBusters.S02E22.iNTERNAL.MULTi.WEB.x264-D4KiD
2019-04-09 20:30:34 The.Real.GhostBusters.S02E23.iNTERNAL.MULTi.WEB.x264-D4KiD
2019-04-09 20:30:45 Scientific.Toolworks.Understand.v5.1.984.Incl.Keygen-AMPED
2019-04-09 20:31:21 The.Real.GhostBusters.S02E24.iNTERNAL.MULTi.WEB.x264-D4KiD
2019-04-09 20:31:26 Omar_Apollo-Friends-WEB-2019-TosK
2019-04-09 20:31:30 Vekterne.S02E07.NORWEGiAN.720p.WEB.H264-HENRETTELSE
2019-04-09 20:31:43 Vekterne.S02E07.NORWEGiAN.1080p.WEB.H264-HENRETTELSE
2019-04-09 20:31:44 Rationale--Live_at_Reeperbahn_Festival_Hamburg-DVBS-09-21-2017-OMA
2019-04-09 20:31:50 Scientific.Toolworks.Understand.v5.1.984.LINUX.X64-AMPED
2019-04-09 20:32:07 The.Real.GhostBusters.S02E25.iNTERNAL.MULTi.WEB.x264-D4KiD
2019-04-09 20:32:27 Camp.Kulinaris.S02E32.NORWEGiAN.720p.WEB.H264-HENRETTELSE
2019-04-09 20:32:53 Camp.Kulinaris.S02E32.NORWEGiAN.1080p.WEB.H264-HENRETTELSE
2019-04-09 20:32:55 The.Real.GhostBusters.S02E26.iNTERNAL.MULTi.WEB.x264-D4KiD
2019-04-09 20:33:41 The.Real.GhostBusters.S02E27.iNTERNAL.MULTi.WEB.x264-D4KiD
2019-04-09 20:34:28 The.Real.GhostBusters.S02E28.iNTERNAL.MULTi.WEB.x264-D4KiD
2019-04-09 20:35:14 The.Real.GhostBusters.S02E29.iNTERNAL.MULTi.WEB.x264-D4KiD
2019-04-09 20:36:01 The.Real.GhostBusters.S02E30.iNTERNAL.MULTi.WEB.x264-D4KiD
2019-04-09 20:36:49 The.Real.GhostBusters.S02E31.iNTERNAL.MULTi.WEB.x264-D4KiD
2019-04-09 20:37:35 The.Real.GhostBusters.S02E32.iNTERNAL.MULTi.WEB.x264-D4KiD
2019-04-09 20:37:53 Vinnarskallar.Samtalen.S01E06.SWEDiSH.720p.WEB.X264-EXECUTION
2019-04-09 20:39:00 Vinnarskallar.Samtalen.S01E06.SWEDiSH.1080p.WEB.X264-EXECUTION
2019-04-09 20:39:32 Fairy.Tail.E301.SUBFRENCH.720p.HDTV.x264-AMB3R
2019-04-09 20:39:41 Fairy.Tail.E301.SUBFRENCH.HDTV.x264-AMB3R
2019-04-09 20:39:53 The.Real.GhostBusters.S02E33.iNTERNAL.MULTi.WEB.x264-D4KiD
2019-04-09 20:39:57 Fairy.Tail.E302.SUBFRENCH.720p.HDTV.x264-AMB3R
2019-04-09 20:40:07 Fairy.Tail.E302.SUBFRENCH.HDTV.x264-AMB3R
2019-04-09 20:40:23 Fairy.Tail.E303.SUBFRENCH.720p.HDTV.x264-AMB3R
2019-04-09 20:40:31 Fairy.Tail.E303.SUBFRENCH.HDTV.x264-AMB3R
2019-04-09 20:40:40 The.Real.GhostBusters.S02E34.iNTERNAL.MULTi.WEB.x264-D4KiD
2019-04-09 20:41:26 The.Real.GhostBusters.S02E35.iNTERNAL.MULTi.WEB.x264-D4KiD
2019-04-09 20:41:52 One.Punch.Man.II.E01.1080p.WEB.x264-URANiME
2019-04-09 20:42:13 The.Real.GhostBusters.S02E36.iNTERNAL.MULTi.WEB.x264-D4KiD
2019-04-09 20:42:53 One.Punch.Man.II.E01.720p.WEB.x264-URANiME
2019-04-09 20:43:00 The.Real.GhostBusters.S02E37.iNTERNAL.MULTi.WEB.x264-D4KiD
2019-04-09 20:43:47 The.Real.GhostBusters.S02E38.iNTERNAL.MULTi.WEB.x264-D4KiD
2019-04-09 20:43:54 One.Punch.Man.II.E01.WEB.x264-URANiME
2019-04-09 20:44:34 The.Real.GhostBusters.S02E39.iNTERNAL.MULTi.WEB.x264-D4KiD
2019-04-09 20:45:21 The.Real.GhostBusters.S02E40.iNTERNAL.MULTi.WEB.x264-D4KiD
2019-04-09 20:46:07 The.Real.GhostBusters.S02E41.iNTERNAL.MULTi.WEB.x264-D4KiD
2019-04-09 20:46:55 The.Real.GhostBusters.S02E42.iNTERNAL.MULTi.WEB.x264-D4KiD
2019-04-09 20:47:41 The.Real.GhostBusters.S02E43.iNTERNAL.MULTi.WEB.x264-D4KiD
2019-04-09 20:48:28 The.Real.GhostBusters.S02E44.iNTERNAL.MULTi.WEB.x264-D4KiD
2019-04-09 20:49:15 The.Real.GhostBusters.S02E45.iNTERNAL.MULTi.WEB.x264-D4KiD
2019-04-09 20:51:38 EPL.2019.04.08.Chelsea.vs.West.Ham.United.720p.WEB.h264-VERUM
2019-04-09 20:52:49 4-Stjerners.Middag.S11E54.NORWEGiAN.720p.HDTV.x264-TvNORGE
2019-04-09 20:58:42 Tid.For.Hjem.S18E12.NORWEGiAN.720p.HDTV.x264-NORPiLT
2019-04-09 21:01:29 Strobe_Connector-Energize-(BMP20190404)-WEB-2019-KLIN
2019-04-09 21:01:52 The.Real.GhostBusters.S02E46.iNTERNAL.MULTi.WEB.x264-D4KiD
2019-04-09 21:02:42 The.Real.GhostBusters.S02E47.iNTERNAL.MULTi.WEB.x264-D4KiD
2019-04-09 21:03:13 Amaia_Montero-Amaia_Montero-ES-CD-FLAC-2008-MAHOU
2019-04-09 21:03:29 The.Real.GhostBusters.S02E48.iNTERNAL.MULTi.WEB.x264-D4KiD
2019-04-09 21:03:36 Efecto_Mariposa-Vuela-ES-CD-FLAC-2018-MAHOU
2019-04-09 21:03:59 Moris-Fiebre_De_Vivir-ES-REISSUE-CD-FLAC-1994-MAHOU
2019-04-09 21:04:15 The.Real.GhostBusters.S02E49.iNTERNAL.MULTi.WEB.x264-D4KiD
2019-04-09 21:04:16 Vekterne.S02E06.NORWEGiAN.720p.HDTV.x264-NORPiLT
2019-04-09 21:04:23 Mourn-Mourn-CD-FLAC-2015-MAHOU
2019-04-09 21:04:43 Solea_Morente-Tendra_Que_Haber_Un_Camino-ES-CD-FLAC-2015-MAHOU
2019-04-09 21:05:02 The.Real.GhostBusters.S02E50.iNTERNAL.MULTi.WEB.x264-D4KiD
2019-04-09 21:05:49 The.Real.GhostBusters.S02E51.iNTERNAL.MULTi.WEB.x264-D4KiD
2019-04-09 21:06:35 The.Real.GhostBusters.S02E52.iNTERNAL.MULTi.WEB.x264-D4KiD
2019-04-09 21:07:22 The.Real.GhostBusters.S02E53.iNTERNAL.MULTi.WEB.x264-D4KiD
2019-04-09 21:07:57 VA-A_Different_Mix_Volume_Two-Remixes_By_The_Nine-Limited_Edition-CD-FLAC-2000-AMOK
2019-04-09 21:08:09 The.Real.GhostBusters.S02E54.iNTERNAL.MULTi.WEB.x264-D4KiD
2019-04-09 21:08:56 The.Real.GhostBusters.S02E55.iNTERNAL.MULTi.WEB.x264-D4KiD
2019-04-09 21:09:42 The.Real.GhostBusters.S02E56.iNTERNAL.MULTi.WEB.x264-D4KiD
2019-04-09 21:10:29 The.Real.GhostBusters.S02E57.iNTERNAL.MULTi.WEB.x264-D4KiD
2019-04-09 21:10:57 Sandro_Dessi_-_Smile_For_Life_EP-(735119_034850)-WEB-2019-ZzZz
2019-04-09 21:11:16 The.Real.GhostBusters.S02E58.iNTERNAL.MULTi.WEB.x264-D4KiD
2019-04-09 21:11:59 Luksusfaelden.S22E11.DANiSH.720p.HDTV.x264-DiViSiON
2019-04-09 21:12:03 The.Real.GhostBusters.S02E59.iNTERNAL.MULTi.WEB.x264-D4KiD
2019-04-09 21:12:50 The.Real.GhostBusters.S02E60.iNTERNAL.MULTi.WEB.x264-D4KiD
2019-04-09 21:13:01 Pa.Gransen.Med.Peter.Jihde.S01E01.SWEDiSH.720p.WEB.h264-NORUSH
2019-04-09 21:13:37 The.Real.GhostBusters.S02E61.iNTERNAL.MULTi.WEB.x264-D4KiD
2019-04-09 21:14:24 The.Real.GhostBusters.S02E62.iNTERNAL.MULTi.WEB.x264-D4KiD
2019-04-09 21:15:11 The.Real.GhostBusters.S02E63.iNTERNAL.MULTi.WEB.x264-D4KiD
2019-04-09 21:15:57 The.Real.GhostBusters.S02E64.iNTERNAL.MULTi.WEB.x264-D4KiD
2019-04-09 21:16:45 The.Real.GhostBusters.S02E65.FiNAL.iNTERNAL.MULTi.WEB.x264-D4KiD
2019-04-09 21:19:09 Ein.starker.Abgang.2008.GERMAN.720p.HDTV.x264-muhHD
2019-04-09 21:21:09 Nacktschnecken.2004.GERMAN.720p.HDTV.x264-muhHD
2019-04-09 21:22:36 Coldplay--Live_in_Stockholm-READ_NFO-DVBS-08-30-2012-OMA
2019-04-09 21:23:01 Freshlyground--Live_in_Bochum-DVBS-08-09-2008-OMA
2019-04-09 21:23:50 Desier-Energy-(IND5CA03BA877)-SINGLE-WEB-2019-KLIN
2019-04-09 21:29:30 VA_-_Red_Laser_Records_EP9-WEB-2019-BiLDERBERG
2019-04-09 21:30:02 Pedro_-_Rapazes-WEB-2019-BiLDERBERG
2019-04-09 21:30:19 Nhoah_-_Mountain_Calls-WEB-2019-BiLDERBERG
2019-04-09 21:30:21 Adelady.S04E01.720p.WEB.h264-LiGATE
2019-04-09 21:31:24 The.Enemy.Within.S01E01.SPANiSH.1080p.HDTV.x264-FERiCE
2019-04-09 21:32:01 Harmike_Dj-Life_EP-(MCL004)-WEB-2019-KLIN
2019-04-09 21:32:20 Adelady.S04E02.720p.WEB.h264-LiGATE
2019-04-09 21:32:50 Adelady.S04E03.720p.WEB.h264-LiGATE
2019-04-09 21:32:56 The.Enemy.Within.S01E01.SPANiSH.720p.HDTV.x264-FERiCE
2019-04-09 21:33:00 Song.fuer.Mia.2019.GERMAN.720p.HDTV.x264-muhHD
2019-04-09 21:33:30 Adelady.S04E01.WEB.h264-LiGATE
2019-04-09 21:33:56 The.Enemy.Within.S01E01.SPANiSH.HDTV.x264-FERiCE
2019-04-09 21:34:46 Adelady.S04E03.WEB.h264-LiGATE
2019-04-09 21:35:27 Song.fuer.Mia.2019.GERMAN.HDTVRiP.x264-muhHD
2019-04-09 21:35:29 Adelady.S04E04.720p.WEB.h264-LiGATE
2019-04-09 21:35:59 Adelady.S04E02.WEB.h264-LiGATE
2019-04-09 21:36:34 The.Enemy.Within.S01E02.SPANiSH.1080p.HDTV.x264-FERiCE
2019-04-09 21:36:54 Adelady.S04E04.WEB.h264-LiGATE
2019-04-09 21:37:55 The.Enemy.Within.S01E02.SPANiSH.720p.HDTV.x264-FERiCE
2019-04-09 21:38:56 The.Enemy.Within.S01E02.SPANiSH.HDTV.x264-FERiCE
2019-04-09 21:39:41 Arthur.und.die.Freunde.der.Tafelrunde.S01E19.GERMAN.720p.HDTV.x264-BTVG
2019-04-09 21:39:58 Komsije.S01E12.SERBiAN.HDTV.x264-RADiOACTiVE
2019-04-09 21:39:59 Komsije.S01E12.SERBiAN.720p.HDTV.x264-RADiOACTiVE
2019-04-09 21:40:00 Komsije.S01E12.SERBiAN.1080p.HDTV.H264-RADiOACTiVE
2019-04-09 21:40:28 Findike-Touches_Beyond-(PDL028)-SINGLE-WEB-2019-AFO
2019-04-09 21:40:42 Arthur.und.die.Freunde.der.Tafelrunde.S01E19.GERMAN.HDTVRiP.x264-BTVG
2019-04-09 21:40:45 Technosphere-TiNYiSO
2019-04-09 21:41:43 Arthur.und.die.Freunde.der.Tafelrunde.S01E20.GERMAN.HDTVRiP.x264-BTVG
2019-04-09 21:42:01 VA-Fermion_8-(CD078)-WEB-2019-AFO
2019-04-09 21:42:40 Dafinchi-Brawler-(LA175)-WEB-2019-AFO
2019-04-09 21:43:58 Arthur.und.die.Freunde.der.Tafelrunde.S01E20.GERMAN.720p.HDTV.x264-BTVG
2019-04-09 21:44:04 Der.Klient.1994.GERMAN.TRAILER.VHSRiP.x264-TREViEW
2019-04-09 21:44:23 Die.Unendliche.Geschichte.3.1994.GERMAN.TRAILER.VHSRiP.x264-TREViEW
2019-04-09 21:44:43 Flammen.des.Widerstandes.1994.GERMAN.TRAILER.VHSRiP.x264-TREViEW
2019-04-09 21:45:01 Im.Sumpf.des.Verbrechens.1995.GERMAN.TRAILER.VHSRiP.x264-TREViEW
2019-04-09 21:45:19 Mr.Bill.1994.GERMAN.TRAILER.VHSRiP.x264-TREViEW
2019-04-09 21:45:35 Naked.in.New.York.1993.GERMAN.TRAILER.VHSRiP.x264-TREViEW
2019-04-09 21:45:53 Natural.Born.Killers.1994.GERMAN.TRAILER.VHSRiP.x264-TREViEW
2019-04-09 21:46:07 The.Specialist.1994.GERMAN.TRAILER.VHSRiP.x264-TREViEW
2019-04-09 21:47:19 Suicidegirls.com_19.04.06.Lilly.Sleepless.Beauty.XXX.iMAGESET-NLFTW
2019-04-09 21:47:57 Pandaerne.Kommer.E02.DANiSH.720p.HDTV.x264-RCDiVX
2019-04-09 21:48:57 VA_-_538_Hitzone_88-CD-2019-SOB
2019-04-09 21:49:43 Kursk.2018.MULTi.COMPLETE.BLURAY-COJONUDO
2019-04-09 21:50:58 Im.Sorry.S02E04.Paerchenmassage.GERMAN.HDTVRip.x264-MDGP
2019-04-09 21:51:57 Infectious_Radio_Episode_007-Ganesh_Pres.Beyond_Wonderland-WEB-2019-XTC_iNT
2019-04-09 21:52:15 Im.Sorry.S02E04.Paerchenmassage.GERMAN.720p.HDTV.x264-MDGP
2019-04-09 21:52:28 Timeless.S02E11.FRENCH.HDTV.x264-AMB3R
2019-04-09 21:52:43 Kursk.2018.SPANiSH.BDRip.x264-JODER
2019-04-09 21:53:48 Pandaerne.Kommer.E02.DANiSH.HDTV.x264-RCDiVX
2019-04-09 21:53:54 Im.Sorry.S02E04.Paerchenmassage.GERMAN.1080p.HDTV.x264-MDGP
2019-04-09 21:54:36 Kursk.2018.SPANiSH.MULTi.720p.BluRay.x264-JODER
2019-04-09 21:56:32 Expremieri.S01E01.Milan.Cic.2018.SLOVAK.HDTV.x264-OMG
2019-04-09 21:56:34 30.Minute.Meals.S28E09.Bacon.Eggs.Taco.Tots.Burritos.720p.WEBRip.x264-CAFFEiNE
2019-04-09 21:56:45 Expremieri.S01E02.Jan.Carnogursky.2018.SLOVAK.HDTV.x264-OMG
2019-04-09 21:57:04 Expremieri.S01E03.Vladimir.Meciar.2018.SLOVAK.HDTV.x264-OMG
2019-04-09 21:58:07 Expremieri.S01E04.Jozef.Moravcik.2018.SLOVAK.HDTV.x264-OMG
2019-04-09 21:58:16 Expremieri.S01E05.Mikulas.Dzurinda.2018.SLOVAK.HDTV.x264-OMG
2019-04-09 21:58:26 Expremieri.S01E06.Iveta.Radicova.2018.SLOVAK.HDTV.x264-OMG
2019-04-09 21:58:36 Expremieri.S01E07.Robert.Fico.2018.SLOVAK.HDTV.x264-OMG
2019-04-09 21:59:01 Holby.City.S21E15.720p.HDTV.x264-ORGANiC
2019-04-09 21:59:14 Kursk.2018.SPANiSH.MULTi.1080p.BluRay.x264-JODER
2019-04-09 21:59:14 Rovina.miesto.pre.zazrak.2016.SLOVAK.HDTV.x264-OMG
2019-04-09 21:59:28 Ruzove.sny.1976.SLOVAK.HDTV.x264-OMG
2019-04-09 21:59:35 Rybarik.sputany.s.riekou.2016.SLOVAK.HDTV.x264-OMG
2019-04-09 21:59:44 Zajatci.podzemia.2012.SLOVAK.HDTV.x264-OMG
2019-04-09 21:59:59 DJ_Vadim-Corrupted_(Dubcatcher_3)-WEB-2019-OND
2019-04-09 22:00:47 30.Minute.Meals.S28E09.Bacon.Eggs.Taco.Tots.Burritos.WEBRip.x264-CAFFEiNE
2019-04-09 22:01:46 Farma.S10E41.2018.SLOVAK.720p.WEB.x264-OMG
2019-04-09 22:01:54 Farma.S10E42.2018.SLOVAK.720p.WEB.x264-OMG
2019-04-09 22:02:03 Farma.S10E43.2018.SLOVAK.720p.WEB.x264-OMG
2019-04-09 22:02:13 Farma.S10E44.2018.SLOVAK.720p.WEB.x264-OMG
2019-04-09 22:02:22 Farma.S10E45.2018.SLOVAK.720p.WEB.x264-OMG
2019-04-09 22:02:30 Farma.S10E46.2018.SLOVAK.720p.WEB.x264-OMG
2019-04-09 22:02:40 Farma.S10E47.2018.SLOVAK.720p.WEB.x264-OMG
2019-04-09 22:02:52 Farma.S10E48.2018.SLOVAK.720p.WEB.x264-OMG
2019-04-09 22:03:01 Farma.S10E49.2018.SLOVAK.720p.WEB.x264-OMG
2019-04-09 22:03:09 Farma.S10E50.2018.SLOVAK.720p.WEB.x264-OMG
2019-04-09 22:03:41 Farma.S10E51.2018.SLOVAK.720p.WEB.x264-OMG
2019-04-09 22:03:49 Farma.S10E52.2018.SLOVAK.720p.WEB.x264-OMG
2019-04-09 22:03:58 Farma.S10E53.2018.SLOVAK.720p.WEB.x264-OMG
2019-04-09 22:04:08 Farma.S10E54.2018.SLOVAK.720p.WEB.x264-OMG
2019-04-09 22:04:16 Farma.S10E55.2018.SLOVAK.720p.WEB.x264-OMG
2019-04-09 22:04:22 Sly_Johnson-New_Day-SINGLE-WEB-FR-2019-OND
2019-04-09 22:04:25 Farma.S10E56.2018.SLOVAK.720p.WEB.x264-OMG
2019-04-09 22:04:33 Farma.S10E57.2018.SLOVAK.720p.WEB.x264-OMG
2019-04-09 22:04:42 Farma.S10E58.2018.SLOVAK.720p.WEB.x264-OMG
2019-04-09 22:04:50 Farma.S10E59.2018.SLOVAK.720p.WEB.x264-OMG
2019-04-09 22:04:58 Farma.S10E60.2018.SLOVAK.720p.WEB.x264-OMG
2019-04-09 22:05:03 Holby.City.S21E15.1080p.HDTV.H264-MTB
2019-04-09 22:05:08 Farma.S10E61.2018.SLOVAK.720p.WEB.x264-OMG
2019-04-09 22:05:16 Farma.S10E62.2018.SLOVAK.720p.WEB.x264-OMG
2019-04-09 22:05:25 Farma.S10E63.2018.SLOVAK.720p.WEB.x264-OMG
2019-04-09 22:05:34 Farma.S10E64.2018.SLOVAK.720p.WEB.x264-OMG
2019-04-09 22:05:43 Farma.S10E65.2018.SLOVAK.720p.WEB.x264-OMG
2019-04-09 22:05:48 Pa.Gransen.Med.Peter.Jihde.S01E01.iNTERNAL.SWEDiSH.720p.WEB.H264-EXECUTION
2019-04-09 22:05:52 Farma.S10E66.2018.SLOVAK.720p.WEB.x264-OMG
2019-04-09 22:06:00 Farma.S10E67.2018.SLOVAK.720p.WEB.x264-OMG
2019-04-09 22:06:08 Farma.S10E68.2018.SLOVAK.720p.WEB.x264-OMG
2019-04-09 22:06:17 Farma.S10E69.2018.SLOVAK.720p.WEB.x264-OMG
2019-04-09 22:06:18 Alla.Mot.Alla.Med.Filip.Och.Fredrik.S01E22.SWEDiSH.720p.WEB.X264-EXECUTION
2019-04-09 22:06:38 Farma.S10E70.2018.SLOVAK.720p.HDTV.x264-OMG
2019-04-09 22:06:47 Alla.Mot.Alla.Med.Filip.Och.Fredrik.S01E22.SWEDiSH.1080p.WEB.X264-EXECUTION
2019-04-09 22:07:17 Pa.Gransen.Med.Peter.Jihde.S01E01.SWEDiSH.1080p.WEB.H264-EXECUTION
2019-04-09 22:07:36 Expremieri.S01E01.Milan.Cic.2018.SLOVAK.720p.HDTV.x264-OMG
2019-04-09 22:07:45 Expremieri.S01E02.Jan.Carnogursky.2018.SLOVAK.720p.HDTV.x264-OMG
2019-04-09 22:07:55 Expremieri.S01E03.Vladimir.Meciar.2018.SLOVAK.720p.HDTV.x264-OMG
2019-04-09 22:08:04 Expremieri.S01E04.Jozef.Moravcik.2018.SLOVAK.720p.HDTV.x264-OMG
2019-04-09 22:08:14 Expremieri.S01E05.Mikulas.Dzurinda.2018.SLOVAK.720p.HDTV.x264-OMG
2019-04-09 22:08:23 Expremieri.S01E06.Iveta.Radicova.2018.SLOVAK.720p.HDTV.x264-OMG
2019-04-09 22:08:30 Expremieri.S01E07.Robert.Fico.2018.SLOVAK.720p.HDTV.x264-OMG
2019-04-09 22:08:56 Rovina.miesto.pre.zazrak.2016.SLOVAK.720p.HDTV.x264-OMG
2019-04-09 22:09:05 Ruzove.sny.1976.SLOVAK.720p.HDTV.x264-OMG
2019-04-09 22:09:18 Rybarik.sputany.s.riekou.2016.SLOVAK.720p.HDTV.x264-OMG
2019-04-09 22:09:28 Zajatci.podzemia.2012.SLOVAK.720p.HDTV.x264-OMG
2019-04-09 22:10:46 Billions.S04E04.SUBFRENCH.1080p.HDTV.H264-HYBRiS
2019-04-09 22:10:47 A.Discovery.Of.Witches.S01E07.FRENCH.HDTV.x264-AMB3R
2019-04-09 22:13:13 Gidseltagningen.S02E04.DANISH.1080p.WEBRip.x264-BALLIN
2019-04-09 22:14:04 Wushu.Chronicles.CHINESE-DARKSiDERS
2019-04-09 22:15:22 Deep.Undercover.S01E28.Operation.Missouri.500.GERMAN.DOKU.720p.HDTV.x264-RiO
2019-04-09 22:16:14 Deep.Undercover.S01E28.Operation.Missouri.500.GERMAN.DOKU.HDTV.x264-RiO
2019-04-09 22:16:55 Deep.Undercover.S01E29.Operation.Thin.Crust.GERMAN.DOKU.720p.HDTV.x264-RiO
2019-04-09 22:17:35 Deep.Undercover.S01E29.Operation.Thin.Crust.GERMAN.DOKU.HDTV.x264-RiO
2019-04-09 22:17:54 Galveston.2018.MULTi.COMPLETE.BLURAY-COJONUDO
2019-04-09 22:18:16 Deep.Undercover.S01E30.Operation.Orozco.GERMAN.DOKU.720p.HDTV.x264-RiO
2019-04-09 22:18:54 Deep.Undercover.S01E30.Operation.Orozco.GERMAN.DOKU.HDTV.x264-RiO
2019-04-09 22:22:00 Testament.of.Youth.2014.German.DL.1080p.BluRay.AVC-NGE
2019-04-09 22:26:41 Atomik_V_-_Pre_Party_Nath_D_Reunion_(Club_XS)-SBD-2019-SOB_INT
2019-04-09 22:27:52 Claudio_Masso-Altair-WEB-2018-FALCON
2019-04-09 22:28:25 Kayatma-Ambivalence-WEB-2019-FALCON
2019-04-09 22:28:57 Manuel_Sofia-Naiads-WEB-2016-FALCON
2019-04-09 22:29:28 Marcus_Henriksson-Feminine_Wisdom-SINGLE-WEB-2015-FALCON
2019-04-09 22:30:00 Marcus_Henriksson_Vs._P-Woland-Ensam_Men_Anda_Inte-SINGLE-WEB-2017-FALCON
2019-04-09 22:30:31 Ninareed-In_My_Sleep-SINGLE-WEB-2019-FALCON
2019-04-09 22:30:48 Holby.City.S21E15.HDTV.x264-MTB
2019-04-09 22:31:04 Noraus-Noraus-WEB-2019-FALCON
2019-04-09 22:31:19 Galveston.2018.SPANiSH.BDRip.x264-JODER
2019-04-09 22:31:34 Ruman-Descending-WEB-2019-FALCON
2019-04-09 22:32:06 Sasha_Malkovich-Quantum_Certainty-WEB-2019-FALCON
2019-04-09 22:32:37 VA-Mutual_Mood_Vol_4-WEB-2019-FALCON
2019-04-09 22:32:58 Guest_DJ_-_Ghetto_Mania_(Galaxie_Radio)-FM-17-03-2019-SOB
2019-04-09 22:33:09 VA-Mutual_Mood_Vol_6-WEB-2019-FALCON
2019-04-09 22:33:31 DreamWorks.Trolls.The.Beat.Goes.On.S06E01.FRENCH.720p.WEB.x264-SPOiLER
2019-04-09 22:33:41 VA-Mutual_Mood_Vol_7-WEB-2019-FALCON
2019-04-09 22:34:00 Galveston.2018.SPANiSH.MULTi.720p.BluRay.x264-JODER
2019-04-09 22:34:16 DreamWorks.Trolls.The.Beat.Goes.On.S06E01.MULTi.1080p.WEB.x264-SPOiLER
2019-04-09 22:35:01 DreamWorks.Trolls.The.Beat.Goes.On.S06E02.FRENCH.720p.WEB.x264-SPOiLER
2019-04-09 22:35:08 Praktisk.Info.Med.Jon.Almaas.S04E05.NORWEGiAN.720p.WEB.x264-KOMPOST
2019-04-09 22:35:46 DreamWorks.Trolls.The.Beat.Goes.On.S06E02.MULTi.1080p.WEB.x264-SPOiLER
2019-04-09 22:36:27 Galveston.2018.SPANiSH.MULTi.1080p.BluRay.x264-JODER
2019-04-09 22:36:31 DreamWorks.Trolls.The.Beat.Goes.On.S06E03.FRENCH.720p.WEB.x264-SPOiLER
2019-04-09 22:37:04 Manatane_-_Ghetto_Mania_(Galaxie_Radio)-FM-17-02-2019-SOB
2019-04-09 22:37:16 DreamWorks.Trolls.The.Beat.Goes.On.S06E03.MULTi.1080p.WEB.x264-SPOiLER
2019-04-09 22:37:32 Havna.S01E04.NORWEGiAN.720p.HDTV.x264-NORPiLT
2019-04-09 22:38:01 DreamWorks.Trolls.The.Beat.Goes.On.S06E04.FRENCH.720p.WEB.x264-SPOiLER
2019-04-09 22:38:45 DreamWorks.Trolls.The.Beat.Goes.On.S06E04.MULTi.1080p.WEB.x264-SPOiLER
2019-04-09 22:39:25 X-Tof_-_Retro_Arena_Radioshow_(Topradio)-STREAM-01-03-2019-SOB_INT
2019-04-09 22:39:30 DreamWorks.Trolls.The.Beat.Goes.On.S06E05.FRENCH.720p.WEB.x264-SPOiLER
2019-04-09 22:40:14 DreamWorks.Trolls.The.Beat.Goes.On.S06E05.MULTi.1080p.WEB.x264-SPOiLER
2019-04-09 22:40:59 DreamWorks.Trolls.The.Beat.Goes.On.S06E06.FiNAL.FRENCH.720p.WEB.x264-SPOiLER
2019-04-09 22:41:44 DreamWorks.Trolls.The.Beat.Goes.On.S06E06.FiNAL.MULTi.1080p.WEB.x264-SPOiLER
2019-04-09 22:41:47 DJ_HS_-_100_Pour_Cent_Retro_30-SBD-2019-SOB_INT
2019-04-09 22:42:46 VA_-_De_Ultieme_Feesten_Als_De_Beesten_Top_100-5CD-2019-DDS
2019-04-09 22:43:22 Praktisk.Info.Med.Jon.Almaas.S04E05.NORWEGiAN.1080p.WEB.x264-KOMPOST
2019-04-09 22:44:02 Lethal_MG_-_Legendary_Sounds_Episode_07-SBD-2019-SOB_INT
2019-04-09 22:44:26 My.Kitchen.Rules.S10E42.720p.HDTV.x264-ORENJI
2019-04-09 22:44:37 My.Kitchen.Rules.S10E42.HDTV.x264-FQM
2019-04-09 22:46:19 Manatane_-_Ghetto_Mania_(Galaxie_Radio)-FM-20-01-2019-SOB
2019-04-09 22:51:22 X-Tof_-_Retro_Arena_Radioshow_(Topradio)-STREAM-15-02-2019-SOB_INT
2019-04-09 22:54:00 Keeping.Faith.S01E01.Die.Suche.beginnt.GERMAN.DL.720p.HDTV.x264-MDGP
2019-04-09 22:54:30 Bestien_-_Save_the_Rave_(Club_Agora)-SBD-26-01-2019-SOB_INT
2019-04-09 22:54:41 A.Discovery.Of.Witches.S01E08.FiNAL.FRENCH.HDTV.x264-AMB3R
2019-04-09 22:57:08 Billions.S04E04.SUBFRENCH.HDTV.x264-AMB3R
2019-04-09 22:58:14 Manatane_-_Ghetto_Mania_(Galaxie_Radio)-FM-10-02-2019-SOB
2019-04-09 22:58:33 Praktisk.Info.Med.Jon.Almaas.S04E05.NORWEGiAN.720p.HDTV.x264-NORPiLT
2019-04-09 23:00:09 The.Victim.S01E02.720p.HDTV.x264-FoV
2019-04-09 23:01:52 V8.Supercars.2019.Tyrepower.Tasmania.Supersprint.Race.Eight.Highlights.1080p.HDTV.x264-GRiP
2019-04-09 23:03:30 DJ_Semmer_-_Age_of_Love_2019-SBD-16-03-2019-SOB_INT
2019-04-09 23:08:20 Der.Trafikant.2018.GERMAN.1080p.BluRay.AVC-iTSMEMARiO
2019-04-09 23:08:49 The.Victim.S01E02.1080p.HDTV.H264-MTB
2019-04-09 23:09:27 Total.Dreamer.S01E41.GERMAN.1080p.HDTV.x264-REQiT
2019-04-09 23:10:26 Total.Dreamer.S01E41.GERMAN.720p.HDTV.x264-REQiT
2019-04-09 23:10:30 WWE.Wrestlemania.35.PPV.1080p.HDTV.x264-PLUTONiUM
2019-04-09 23:11:40 Teka_B_-_Terug_Naar_Vroeger_Vol_01-SBD-2019-SOB_INT
2019-04-09 23:11:54 Total.Dreamer.S01E41.GERMAN.HDTV.x264-REQiT
2019-04-09 23:12:55 Save.Money.Lose.Weight.S03E01.HDTV.x264-PLUTONiUM
2019-04-09 23:13:47 DJ_Vinn_-_Retro_Arena_Radioshow_(Topradio)-STREAM-08-03-2019-SOB_INT
2019-04-09 23:13:59 Save.Money.Lose.Weight.S03E01.720p.HDTV.x264-PLUTONiUM
2019-04-09 23:14:58 Save.Money.Lose.Weight.S03E01.1080p.HDTV.x264-PLUTONiUM
2019-04-09 23:16:03 X-Tof_-_Retro_Arena_Radioshow_(Topradio)-STREAM-15-03-2019-SOB_INT
2019-04-09 23:17:30 My.Kitchen.Rules.S10E40.1080p.HDTV.h264-PLUTONiUM
2019-04-09 23:17:32 Keeping.Faith.S01E01.Die.Suche.beginnt.GERMAN.HDTVRip.x264-MDGP
2019-04-09 23:18:32 DJ_HS_-_100_Pour_Cent_Retro_31-SBD-2019-SOB_INT
2019-04-09 23:18:50 The.Bold.and.the.Beautiful.S32E138.WEB.x264-W4F
2019-04-09 23:19:23 The.Bold.and.the.Beautiful.S32E138.720p.WEB.x264-W4F
2019-04-09 23:19:49 Keeping.Faith.S01E01.Die.Suche.beginnt.GERMAN.DL.1080p.HDTV.x264-MDGP
2019-04-09 23:19:49 My.Kitchen.Rules.S10E41.1080p.HDTV.h264-PLUTONiUM
2019-04-09 23:19:50 The.Bold.and.the.Beautiful.S32E138.1080p.WEB.x264-W4F
2019-04-09 23:20:50 Manatane_-_Ghetto_Mania_(Galaxie_Radio)-FM-10-03-2019-SOB
2019-04-09 23:21:29 L.Amour.Flou.2018.FRENCH.720p.BluRay.x264-LOST
2019-04-09 23:22:29 Hard.To.Please.OAPs.S01E01.HDTV.x264-PLUTONiUM
2019-04-09 23:23:31 Hard.To.Please.OAPs.S01E01.720p.HDTV.x264-PLUTONiUM
2019-04-09 23:23:33 L.Amour.Flou.2018.FRENCH.1080p.BluRay.x264-LOST
2019-04-09 23:24:09 Juicy.News.S03E07.DANiSH.720p.WEB.h264-DANES
2019-04-09 23:24:40 One-Punch.Man.Second.Season.Special.E00.SUBFRENCH.720p.HDTV.x264-AMB3R
2019-04-09 23:24:52 One-Punch.Man.Second.Season.Special.E00.SUBFRENCH.HDTV.x264-AMB3R
2019-04-09 23:26:27 The.Victim.S01E02.HDTV.x264-MTB
2019-04-09 23:27:26 One-Punch.Man.Second.Season.E01.SUBFRENCH.720p.HDTV.x264-AMB3R
2019-04-09 23:27:40 One-Punch.Man.Second.Season.E01.SUBFRENCH.HDTV.x264-AMB3R
2019-04-09 23:28:33 Home.S01E06.720p.HDTV.x264-MTB
2019-04-09 23:29:36 Home.S01E06.1080p.HDTV.H264-MTB
2019-04-09 23:31:02 Driving.Test.AU.S01E01.Hai.720p.WEB.h264-LiGATE
2019-04-09 23:31:42 Driving.Test.AU.S01E02.Atia.720p.WEB.h264-LiGATE
2019-04-09 23:32:28 Driving.Test.AU.S01E03.Tony.720p.WEB.h264-LiGATE
2019-04-09 23:33:03 Greys.Anatomy.S12E01.iTALiAN.720p.WEB.H264-HWD
2019-04-09 23:33:04 Greys.Anatomy.S12E02.iTALiAN.720p.WEB.H264-HWD
2019-04-09 23:33:04 Greys.Anatomy.S12E03.iTALiAN.720p.WEB.H264-HWD
2019-04-09 23:33:05 Greys.Anatomy.S12E04.iTALiAN.720p.WEB.H264-HWD
2019-04-09 23:33:17 Driving.Test.AU.S01E04.Donna.720p.WEB.h264-LiGATE
2019-04-09 23:33:47 Driving.Test.AU.S01E05.Jesse.720p.WEB.h264-LiGATE
2019-04-09 23:34:04 Greys.Anatomy.S12E05.iTALiAN.720p.WEB.H264-HWD
2019-04-09 23:34:06 Greys.Anatomy.S12E06.iTALiAN.720p.WEB.H264-HWD
2019-04-09 23:34:07 Greys.Anatomy.S12E07.iTALiAN.720p.WEB.H264-HWD
2019-04-09 23:34:10 Greys.Anatomy.S12E08.iTALiAN.720p.WEB.H264-HWD
2019-04-09 23:34:14 Driving.Test.AU.S01E06.Tory.720p.WEB.h264-LiGATE
2019-04-09 23:35:17 Driving.Test.AU.S01E07.Lana.720p.WEB.h264-LiGATE
2019-04-09 23:36:01 Driving.Test.AU.S01E08.Cooper.720p.WEB.h264-LiGATE
2019-04-09 23:36:32 Driving.Test.AU.S01E09.Teara.720p.WEB.h264-LiGATE
2019-04-09 23:37:18 Driving.Test.AU.S01E10.Rani.720p.WEB.h264-LiGATE
2019-04-09 23:38:05 Greys.Anatomy.S12E09.iTALiAN.720p.WEB.H264-HWD
2019-04-09 23:38:07 Greys.Anatomy.S12E10.iTALiAN.720p.WEB.H264-HWD
2019-04-09 23:38:09 Greys.Anatomy.S12E11.iTALiAN.720p.WEB.H264-HWD
2019-04-09 23:38:11 Greys.Anatomy.S12E12.iTALiAN.720p.WEB.H264-HWD
2019-04-09 23:38:23 Driving.Test.AU.S01E11.Daryl.720p.WEB.h264-LiGATE
2019-04-09 23:39:47 Driving.Test.AU.S01E12.Felicity.720p.WEB.h264-LiGATE
2019-04-09 23:40:17 Superorganism-PULS_Festival_(2017)-720p-x264-2017-SRP
2019-04-09 23:40:24 Outback.Opal.Hunters.S02E07.WEB.x264-UNDERBELLY
2019-04-09 23:41:26 Outback.Opal.Hunters.S02E07.720p.WEB.x264-UNDERBELLY
2019-04-09 23:42:03 Greys.Anatomy.S12E13.iTALiAN.720p.WEB.H264-HWD
2019-04-09 23:42:05 Greys.Anatomy.S12E14.iTALiAN.720p.WEB.H264-HWD
2019-04-09 23:42:07 Greys.Anatomy.S12E15.iTALiAN.720p.WEB.H264-HWD
2019-04-09 23:42:09 Greys.Anatomy.S12E16.iTALiAN.720p.WEB.H264-HWD
2019-04-09 23:44:27 The.Magicians.US.S04E11.FRENCH.HDTV.x264-AMB3R
2019-04-09 23:45:06 Love.ritual-DARKSiDERS
2019-04-09 23:46:42 Deeper.19.04.09.Angela.White.Diabolique.Part.2.XXX.1080p.MP4-KTR
2019-04-09 23:48:54 Arc.Savior.Update.v1.0.9-CODEX
2019-04-09 23:48:56 Vixen.19.04.09.Lena.Anderson.XXX.1080p.MP4-KTR
2019-04-09 23:49:03 ToyMakerz.S03E05.720p.WEB.h264-CookieMonster
2019-04-09 23:49:32 Jagged.Alliance.Rage.Update.3-CODEX
2019-04-09 23:50:04 The.White.Laboratory.Update.v1.0.2-PLAZA
2019-04-09 23:50:16 Teen.Mom.Young.and.Pregnant.S01E00.Being.Danae.720p.WEB.x264-CookieMonster
2019-04-09 23:50:24 Greys.Anatomy.S12E17.iTALiAN.720p.WEB.H264-HWD
2019-04-09 23:50:28 Greys.Anatomy.S12E18.iTALiAN.720p.WEB.H264-HWD
2019-04-09 23:50:30 Greys.Anatomy.S12E19.iTALiAN.720p.WEB.H264-HWD
2019-04-09 23:50:32 Greys.Anatomy.S12E20.iTALiAN.720p.WEB.H264-HWD
2019-04-09 23:50:45 Teen.Mom.Young.and.Pregnant.S01E00.Being.Danae.1080p.WEB.x264-CookieMonster
2019-04-09 23:51:07 Teen.Mom.Young.and.Pregnant.S01E00.Being.Danae.WEB.x264-CookieMonster
2019-04-09 23:51:36 Greys.Anatomy.S12E21.iTALiAN.720p.WEB.H264-HWD
2019-04-09 23:51:37 Greys.Anatomy.S12E22.iTALiAN.720p.WEB.H264-HWD
2019-04-09 23:51:39 Greys.Anatomy.S12E23.iTALiAN.720p.WEB.H264-HWD
2019-04-09 23:51:40 Greys.Anatomy.S12E24.iTALiAN.720p.WEB.H264-HWD
2019-04-09 23:55:09 Youre.The.Worst.S05E13.FiNAL.FRENCH.HDTV.x264-AMB3R
2019-04-09 23:57:08 Billions.S04E04.SUBFRENCH.720p.HDTV.x264-HYBRiS
2019-04-09 23:57:34 Outback.Opal.Hunters.S02E07.1080p.WEB.x264-UNDERBELLY
2019-04-09 23:58:37 Outback.Opal.Hunters.S02E08.WEB.x264-UNDERBELLY
2019-04-09 23:59:39 Outback.Opal.Hunters.S02E08.720p.WEB.x264-UNDERBELLY